Observation data for Crane on 12/09/2018      Previous  Date       Current Mesonet Observations  Soil Data  Daily Summary Page  Observations in Plain Language
KCR2 090600Z 13002KT 02/01 A3032 RMK A01 T00170008  RH  094%=      5-min Rain = 0
KCR2 090601Z 13002KT 02/01 A3032 RMK A01 T00170008  RH  094%=      5-min Rain = 0
KCR2 090602Z 13002KT 02/01 A3032 RMK A01 T00170008  RH  094%=      5-min Rain = 0
KCR2 090603Z 14002KT 02/01 A3032 RMK A01 T00170008  RH  094%=      5-min Rain = 0
KCR2 090604Z 14001KT 02/01 A3032 RMK A01 T00160008  RH  094%=      5-min Rain = 0
KCR2 090605Z 14001KT 02/01 A3032 RMK A01 T00160008  RH  094%=      5-min Rain = 0
KCR2 090606Z 14001KT 02/01 A3031 RMK A01 T00160008  RH  094%=      5-min Rain = 0
KCR2 090607Z 14001KT 02/01 A3031 RMK A01 T00170008  RH  094%=      5-min Rain = 0
KCR2 090608Z 14001KT 02/01 A3031 RMK A01 T00160007  RH  094%=      5-min Rain = 0
KCR2 090609Z 13001KT 02/01 A3031 RMK A01 T00160007  RH  093%=      5-min Rain = 0
KCR2 090610Z 12001KT 02/01 A3031 RMK A01 T00160006  RH  093%=      5-min Rain = 0
KCR2 090611Z 12001KT 02/01 A3031 RMK A01 T00160006  RH  093%=      5-min Rain = 0
KCR2 090612Z 12001KT 02/01 A3031 RMK A01 T00150005  RH  093%=      5-min Rain = 0
KCR2 090613Z 13002KT 01/00 A3031 RMK A01 T00140004  RH  093%=      5-min Rain = 0
KCR2 090614Z 14002KT 01/01 A3031 RMK A01 T00140005  RH  094%=      5-min Rain = 0
KCR2 090615Z 14002KT 01/01 A3031 RMK A01 T00140005  RH  094%=      5-min Rain = 0
KCR2 090616Z 15002KT 01/01 A3031 RMK A01 T00140005  RH  094%=      5-min Rain = 0
KCR2 090617Z 15002KT 01/01 A3031 RMK A01 T00140005  RH  094%=      5-min Rain = 0
KCR2 090618Z 15002KT 01/01 A3031 RMK A01 T00140006  RH  094%=      5-min Rain = 0
KCR2 090619Z 15002KT 01/01 A3031 RMK A01 T00140006  RH  094%=      5-min Rain = 0
KCR2 090620Z 15002KT 01/01 A3031 RMK A01 T00140006  RH  095%=      5-min Rain = 0
KCR2 090621Z 15002KT 01/01 A3031 RMK A01 T00140006  RH  094%=      5-min Rain = 0
KCR2 090622Z 15002KT 01/01 A3031 RMK A01 T00140006  RH  094%=      5-min Rain = 0
KCR2 090623Z 15002KT 01/01 A3031 RMK A01 T00140005  RH  094%=      5-min Rain = 0
KCR2 090624Z 16002KT 01/01 A3031 RMK A01 T00130005  RH  094%=      5-min Rain = 0
KCR2 090625Z 16002KT 01/01 A3031 RMK A01 T00130005  RH  094%=      5-min Rain = 0
KCR2 090626Z 16002KT 01/01 A3031 RMK A01 T00130006  RH  095%=      5-min Rain = 0
KCR2 090627Z 16002KT 01/01 A3031 RMK A01 T00140006  RH  095%=      5-min Rain = 0
KCR2 090628Z 16003KT 01/01 A3031 RMK A01 T00140006  RH  094%=      5-min Rain = 0
KCR2 090629Z 16003KT 01/01 A3031 RMK A01 T00140006  RH  094%=      5-min Rain = 0
KCR2 090630Z 16003KT 01/01 A3031 RMK A01 T00140005  RH  094%=      5-min Rain = 0
KCR2 090631Z 16003KT 01/01 A3031 RMK A01 T00130005  RH  094%=      5-min Rain = 0
KCR2 090632Z 16003KT 01/01 A3031 RMK A01 T00130005  RH  094%=      5-min Rain = 0
KCR2 090633Z 16003KT 01/01 A3031 RMK A01 T00130005  RH  094%=      5-min Rain = 0
KCR2 090634Z 16003KT 01/01 A3031 RMK A01 T00130005  RH  094%=      5-min Rain = 0
KCR2 090635Z 16003KT 01/01 A3031 RMK A01 T00130005  RH  095%=      5-min Rain = 0
KCR2 090636Z 16003KT 01/01 A3031 RMK A01 T00130005  RH  095%=      5-min Rain = 0
KCR2 090637Z 16003KT 01/01 A3031 RMK A01 T00130005  RH  095%=      5-min Rain = 0
KCR2 090638Z 16003KT 01/01 A3031 RMK A01 T00130005  RH  095%=      5-min Rain = 0
KCR2 090639Z 16003KT 01/01 A3031 RMK A01 T00130005  RH  095%=      5-min Rain = 0
KCR2 090640Z 16003KT 01/01 A3031 RMK A01 T00130005  RH  095%=      5-min Rain = 0
KCR2 090641Z 17003KT 01/00 A3031 RMK A01 T00120004  RH  095%=      5-min Rain = 0
KCR2 090642Z 17003KT 01/00 A3031 RMK A01 T00120004  RH  094%=      5-min Rain = 0
KCR2 090643Z 17003KT 01/00 A3031 RMK A01 T00120004  RH  094%=      5-min Rain = 0
KCR2 090644Z 17004KT 01/00 A3031 RMK A01 T00120004  RH  095%=      5-min Rain = 0
KCR2 090645Z 17004KT 01/00 A3031 RMK A01 T00120004  RH  094%=      5-min Rain = 0
KCR2 090646Z 17004KT 01/00 A3031 RMK A01 T00120004  RH  094%=      5-min Rain = 0
KCR2 090647Z 17004KT 01/00 A3031 RMK A01 T00110003  RH  094%=      5-min Rain = 0
KCR2 090648Z 17003KT 01/00 A3031 RMK A01 T00110003  RH  095%=      5-min Rain = 0
KCR2 090649Z 17004KT 01/00 A3031 RMK A01 T00110003  RH  095%=      5-min Rain = 0
KCR2 090650Z 18004KT 01/00 A3031 RMK A01 T00110003  RH  095%=      5-min Rain = 0
KCR2 090651Z 18004KT 01/00 A3031 RMK A01 T00110003  RH  095%=      5-min Rain = 0
KCR2 090652Z 18003KT 01/00 A3031 RMK A01 T00110003  RH  095%=      5-min Rain = 0
KCR2 090653Z 18003KT 01/00 A3031 RMK A01 T00100003  RH  095%=      5-min Rain = 0
KCR2 090654Z 18004KT 01/00 A3031 RMK A01 T00100003  RH  095%=      5-min Rain = 0
KCR2 090655Z 18004KT 01/00 A3031 RMK A01 T00100003  RH  095%=      5-min Rain = 0
KCR2 090656Z 18004KT 01/00 A3031 RMK A01 T00100003  RH  095%=      5-min Rain = 0
KCR2 090657Z 18004KT 01/00 A3031 RMK A01 T00100003  RH  095%=      5-min Rain = 0
KCR2 090658Z 18004KT 01/00 A3031 RMK A01 T00100003  RH  095%=      5-min Rain = 0
KCR2 090659Z 17004KT 01/00 A3031 RMK A01 T00100003  RH  095%=      5-min Rain = 0
KCR2 090700Z 17004KT 01/00 A3031 RMK A01 T00100003  RH  095%=      5-min Rain = 0
KCR2 090701Z 17004KT 01/00 A3031 RMK A01 T00100003  RH  095%=      5-min Rain = 0
KCR2 090702Z 17004KT 01/00 A3031 RMK A01 T00100003  RH  095%=      5-min Rain = 0
KCR2 090703Z 17004KT 01/00 A3031 RMK A01 T00100002  RH  095%=      5-min Rain = 0
KCR2 090704Z 17004KT 01/00 A3031 RMK A01 T00100002  RH  095%=      5-min Rain = 0
KCR2 090705Z 18004KT 01/00 A3031 RMK A01 T00100002  RH  095%=      5-min Rain = 0
KCR2 090706Z 18003KT 01/00 A3031 RMK A01 T00100002  RH  095%=      5-min Rain = 0
KCR2 090707Z 18003KT 01/00 A3031 RMK A01 T00090002  RH  095%=      5-min Rain = 0
KCR2 090708Z 18003KT 01/00 A3031 RMK A01 T00100002  RH  095%=      5-min Rain = 0
KCR2 090709Z 18003KT 01/00 A3031 RMK A01 T00100003  RH  095%=      5-min Rain = 0
KCR2 090710Z 18003KT 01/00 A3031 RMK A01 T00100003  RH  095%=      5-min Rain = 0
KCR2 090711Z 18003KT 01/00 A3031 RMK A01 T00100002  RH  095%=      5-min Rain = 0
KCR2 090712Z 18003KT 01/00 A3031 RMK A01 T00090001  RH  094%=      5-min Rain = 0
KCR2 090713Z 18002KT 01/00 A3031 RMK A01 T00090001  RH  094%=      5-min Rain = 0
KCR2 090714Z 18002KT 01/00 A3031 RMK A01 T000800-0  RH  094%=      5-min Rain = 0
KCR2 090715Z 17002KT 01/00 A303 RMK A01 T00080000  RH  094%=      5-min Rain = 0
KCR2 090716Z 17002KT 01/00 A303 RMK A01 T00080000  RH  094%=      5-min Rain = 0
KCR2 090717Z 16002KT 01/00 A303 RMK A01 T00080000  RH  095%=      5-min Rain = 0
KCR2 090718Z 16002KT 01/00 A303 RMK A01 T00080001  RH  095%=      5-min Rain = 0
KCR2 090719Z 15002KT 01/00 A303 RMK A01 T00080001  RH  095%=      5-min Rain = 0
KCR2 090720Z 14002KT 01/00 A303 RMK A01 T00080001  RH  095%=      5-min Rain = 0
KCR2 090721Z 14002KT 01/00 A303 RMK A01 T00080001  RH  095%=      5-min Rain = 0
KCR2 090722Z 14002KT 01/00 A303 RMK A01 T00080000  RH  095%=      5-min Rain = 0
KCR2 090723Z 14002KT 01/M00 A303 RMK A01 T00071001  RH  095%=      5-min Rain = 0
KCR2 090724Z 14002KT 01/M00 A303 RMK A01 T00051003  RH  094%=      5-min Rain = 0
KCR2 090725Z 13001KT 00/M00 A303 RMK A01 T00041004  RH  094%=      5-min Rain = 0
KCR2 090726Z 13001KT 01/M00 A303 RMK A01 T00051003  RH  095%=      5-min Rain = 0
KCR2 090727Z 12001KT 01/M00 A303 RMK A01 T00051001  RH  095%=      5-min Rain = 0
KCR2 090728Z 10001KT 01/00 A303 RMK A01 T00060000  RH  096%=      5-min Rain = 0
KCR2 090729Z 08001KT 01/00 A303 RMK A01 T00070001  RH  096%=      5-min Rain = 0
KCR2 090730Z 06001KT 01/M00 A303 RMK A01 T00061001  RH  095%=      5-min Rain = 0
KCR2 090731Z 05001KT 00/M00 A303 RMK A01 T00041004  RH  095%=      5-min Rain = 0
KCR2 090732Z 03002KT 00/M01 A303 RMK A01 T00021006  RH  094%=      5-min Rain = 0
KCR2 090733Z 03002KT 00/M01 A303 RMK A01 T00021006  RH  094%=      5-min Rain = 0
KCR2 090734Z 03003KT 00/M01 A303 RMK A01 T00011006  RH  095%=      5-min Rain = 0
KCR2 090735Z 02003KT 00/M01 A303 RMK A01 T00011006  RH  095%=      5-min Rain = 0
KCR2 090736Z 02003KT 00/M01 A303 RMK A01 T00011006  RH  095%=      5-min Rain = 0
KCR2 090737Z 03003KT 00/M01 A303 RMK A01 T00011006  RH  095%=      5-min Rain = 0
KCR2 090738Z 03003KT 00/M01 A303 RMK A01 T00011006  RH  096%=      5-min Rain = 0
KCR2 090739Z 03003KT 00/01 A303 RMK A01 T00-000-6  RH  096%=      5-min Rain = 0
KCR2 090740Z 03003KT 00/01 A303 RMK A01 T00-000-6  RH  096%=      5-min Rain = 0
KCR2 090741Z 03003KT 00/01 A303 RMK A01 T00-000-6  RH  096%=      5-min Rain = 0
KCR2 090742Z 03003KT 00/01 A303 RMK A01 T00-000-6  RH  096%=      5-min Rain = 0
KCR2 090743Z 03003KT M00/M01 A303 RMK A01 T10011007  RH  096%=      5-min Rain = 0
KCR2 090744Z 03002KT M00/M01 A303 RMK A01 T10011007  RH  096%=      5-min Rain = 0
KCR2 090745Z 03002KT M00/M01 A303 RMK A01 T10011007  RH  096%=      5-min Rain = 0
KCR2 090746Z 03002KT M00/M01 A303 RMK A01 T10011007  RH  096%=      5-min Rain = 0
KCR2 090747Z 04002KT M00/M01 A303 RMK A01 T10011006  RH  096%=      5-min Rain = 0
KCR2 090748Z 04002KT M00/M01 A303 RMK A01 T10011006  RH  097%=      5-min Rain = 0
KCR2 090749Z 04001KT M00/M01 A303 RMK A01 T10011006  RH  097%=      5-min Rain = 0
KCR2 090750Z 03001KT M00/M01 A303 RMK A01 T10011006  RH  097%=      5-min Rain = 0
KCR2 090751Z 02001KT M00/M01 A303 RMK A01 T10011006  RH  097%=      5-min Rain = 0
KCR2 090752Z 02002KT M00/M01 A303 RMK A01 T10021006  RH  097%=      5-min Rain = 0
KCR2 090753Z 02002KT M00/M01 A303 RMK A01 T10011006  RH  097%=      5-min Rain = 0
KCR2 090754Z 03002KT M00/M01 A303 RMK A01 T10021006  RH  097%=      5-min Rain = 0
KCR2 090755Z 03002KT M00/M01 A303 RMK A01 T10011006  RH  097%=      5-min Rain = 0
KCR2 090756Z 02003KT M00/M01 A303 RMK A01 T10011006  RH  097%=      5-min Rain = 0
KCR2 090757Z 02002KT M00/M01 A303 RMK A01 T10021006  RH  097%=      5-min Rain = 0
KCR2 090758Z 02002KT M00/M01 A303 RMK A01 T10021007  RH  097%=      5-min Rain = 0
KCR2 090759Z 02002KT M00/M01 A303 RMK A01 T10021007  RH  097%=      5-min Rain = 0
KCR2 090800Z 01002KT M00/M01 A303 RMK A01 T10031007  RH  097%=      5-min Rain = 0
KCR2 090801Z 01003KT M00/M01 A303 RMK A01 T10031008  RH  097%=      5-min Rain = 0
KCR2 090802Z 01003KT M00/M01 A303 RMK A01 T10031008  RH  097%=      5-min Rain = 0
KCR2 090803Z 02003KT M00/M01 A303 RMK A01 T10031008  RH  097%=      5-min Rain = 0
KCR2 090804Z 02003KT M00/M01 A303 RMK A01 T10031007  RH  097%=      5-min Rain = 0
KCR2 090805Z 02003KT M00/M01 A303 RMK A01 T10031008  RH  097%=      5-min Rain = 0
KCR2 090806Z 01003KT M00/M01 A303 RMK A01 T10031008  RH  097%=      5-min Rain = 0
KCR2 090807Z 02003KT M00/M01 A303 RMK A01 T10041008  RH  097%=      5-min Rain = 0
KCR2 090808Z 02003KT M00/M01 A303 RMK A01 T10041008  RH  097%=      5-min Rain = 0
KCR2 090809Z 03003KT M00/M01 A303 RMK A01 T10041008  RH  097%=      5-min Rain = 0
KCR2 090810Z 03003KT M00/M01 A303 RMK A01 T10031007  RH  097%=      5-min Rain = 0
KCR2 090811Z 03003KT M00/M01 A303 RMK A01 T10021006  RH  098%=      5-min Rain = 0
KCR2 090812Z 03003KT M00/M00 A303 RMK A01 T10011004  RH  098%=      5-min Rain = 0
KCR2 090813Z 03002KT M00/M00 A303 RMK A01 T10011004  RH  098%=      5-min Rain = 0
KCR2 090814Z 03002KT M00/M00 A303 RMK A01 T10011004  RH  098%=      5-min Rain = 0
KCR2 090815Z 03002KT M00/M01 A303 RMK A01 T10021005  RH  097%=      5-min Rain = 0
KCR2 090816Z 03003KT M00/M01 A303 RMK A01 T10021006  RH  097%=      5-min Rain = 0
KCR2 090817Z 03003KT M00/M01 A303 RMK A01 T10021006  RH  097%=      5-min Rain = 0
KCR2 090818Z 03003KT M00/M01 A303 RMK A01 T10021005  RH  098%=      5-min Rain = 0
KCR2 090819Z 03003KT M00/M01 A303 RMK A01 T10011005  RH  098%=      5-min Rain = 0
KCR2 090820Z 03002KT M00/M01 A303 RMK A01 T10011005  RH  098%=      5-min Rain = 0
KCR2 090821Z 03002KT M00/M01 A303 RMK A01 T10021005  RH  098%=      5-min Rain = 0
KCR2 090822Z 03002KT M00/M01 A303 RMK A01 T10021006  RH  098%=      5-min Rain = 0
KCR2 090823Z 03002KT M00/M01 A303 RMK A01 T10031006  RH  098%=      5-min Rain = 0
KCR2 090824Z 03002KT M00/M01 A303 RMK A01 T10031006  RH  097%=      5-min Rain = 0
KCR2 090825Z 04002KT M00/M01 A303 RMK A01 T10031006  RH  098%=      5-min Rain = 0
KCR2 090826Z 05002KT M00/M01 A3029 RMK A01 T10031006  RH  098%=      5-min Rain = 0
KCR2 090827Z 05002KT M00/M01 A3029 RMK A01 T10031006  RH  098%=      5-min Rain = 0
KCR2 090828Z 05003KT M00/M01 A3029 RMK A01 T10021006  RH  098%=      5-min Rain = 0
KCR2 090829Z 05003KT M00/M01 A3029 RMK A01 T10021006  RH  098%=      5-min Rain = 0
KCR2 090830Z 05003KT M00/M01 A3029 RMK A01 T10021006  RH  098%=      5-min Rain = 0
KCR2 090831Z 05003KT M00/M01 A3029 RMK A01 T10021006  RH  098%=      5-min Rain = 0
KCR2 090832Z 05003KT M00/M01 A3029 RMK A01 T10021006  RH  098%=      5-min Rain = 0
KCR2 090833Z 05003KT M00/M01 A3029 RMK A01 T10021005  RH  098%=      5-min Rain = 0
KCR2 090834Z 05003KT M00/M01 A3029 RMK A01 T10021006  RH  098%=      5-min Rain = 0
KCR2 090835Z 05003KT M00/M01 A3029 RMK A01 T10021006  RH  098%=      5-min Rain = 0
KCR2 090836Z 05003KT M00/M01 A303 RMK A01 T10021006  RH  098%=      5-min Rain = 0
KCR2 090837Z 04002KT M00/M01 A303 RMK A01 T10031006  RH  098%=      5-min Rain = 0
KCR2 090838Z 04002KT M00/M01 A303 RMK A01 T10031006  RH  098%=      5-min Rain = 0
KCR2 090839Z 05002KT M00/M01 A303 RMK A01 T10031006  RH  098%=      5-min Rain = 0
KCR2 090840Z 05002KT M00/M01 A303 RMK A01 T10031007  RH  098%=      5-min Rain = 0
KCR2 090841Z 05002KT M00/M01 A303 RMK A01 T10031007  RH  098%=      5-min Rain = 0
KCR2 090842Z 05002KT M00/M01 A303 RMK A01 T10031007  RH  098%=      5-min Rain = 0
KCR2 090843Z 06002KT M00/M01 A3029 RMK A01 T10031007  RH  098%=      5-min Rain = 0
KCR2 090844Z 06003KT M00/M01 A3029 RMK A01 T10031007  RH  098%=      5-min Rain = 0
KCR2 090845Z 06003KT M00/M01 A3029 RMK A01 T10031007  RH  098%=      5-min Rain = 0
KCR2 090846Z 06002KT M00/M01 A3029 RMK A01 T10031006  RH  098%=      5-min Rain = 0
KCR2 090847Z 06002KT M00/M01 A3029 RMK A01 T10031007  RH  098%=      5-min Rain = 0
KCR2 090848Z 07002KT M00/M01 A3029 RMK A01 T10031007  RH  098%=      5-min Rain = 0
KCR2 090849Z 07002KT M00/M01 A3029 RMK A01 T10031007  RH  098%=      5-min Rain = 0
KCR2 090850Z 06003KT M00/M01 A3029 RMK A01 T10031006  RH  098%=      5-min Rain = 0
KCR2 090851Z 06003KT M00/M01 A3029 RMK A01 T10031007  RH  098%=      5-min Rain = 0
KCR2 090852Z 06003KT M00/M01 A3029 RMK A01 T10041007  RH  097%=      5-min Rain = 0
KCR2 090853Z 06003KT M00/M01 A3029 RMK A01 T10041007  RH  097%=      5-min Rain = 0
KCR2 090854Z 06003KT M00/M01 A3029 RMK A01 T10031007  RH  098%=      5-min Rain = 0
KCR2 090855Z 06003KT M00/M01 A3029 RMK A01 T10031006  RH  098%=      5-min Rain = 0
KCR2 090856Z 07003KT M00/M01 A3029 RMK A01 T10031006  RH  098%=      5-min Rain = 0
KCR2 090857Z 07003KT M00/M01 A3029 RMK A01 T10021006  RH  098%=      5-min Rain = 0
KCR2 090858Z 07003KT M00/M01 A3029 RMK A01 T10031006  RH  097%=      5-min Rain = 0
KCR2 090859Z 07003KT M00/M01 A3029 RMK A01 T10031007  RH  097%=      5-min Rain = 0
KCR2 090900Z 07003KT M00/M01 A3029 RMK A01 T10031007  RH  097%=      5-min Rain = 0
KCR2 090901Z 07003KT M00/M01 A3029 RMK A01 T10031007  RH  097%=      5-min Rain = 0
KCR2 090902Z 07002KT M00/M01 A3029 RMK A01 T10041008  RH  097%=      5-min Rain = 0
KCR2 090903Z 06002KT M00/M01 A3029 RMK A01 T10041008  RH  097%=      5-min Rain = 0
KCR2 090904Z 06002KT M00/M01 A3029 RMK A01 T10041008  RH  097%=      5-min Rain = 0
KCR2 090905Z 06002KT M00/M01 A3029 RMK A01 T10041008  RH  097%=      5-min Rain = 0
KCR2 090906Z 06002KT M00/M01 A3029 RMK A01 T10041007  RH  097%=      5-min Rain = 0
KCR2 090907Z 06002KT M00/M01 A3029 RMK A01 T10041008  RH  097%=      5-min Rain = 0
KCR2 090908Z 07002KT M00/M01 A3029 RMK A01 T10041008  RH  097%=      5-min Rain = 0
KCR2 090909Z 06002KT M00/M01 A3029 RMK A01 T10041008  RH  097%=      5-min Rain = 0
KCR2 090910Z 07002KT M00/M01 A3029 RMK A01 T10041008  RH  097%=      5-min Rain = 0
KCR2 090911Z 07002KT M00/M01 A3029 RMK A01 T10031007  RH  097%=      5-min Rain = 0
KCR2 090912Z 07002KT M00/M01 A3029 RMK A01 T10041008  RH  097%=      5-min Rain = 0
KCR2 090913Z 07002KT M00/M01 A3029 RMK A01 T10041008  RH  097%=      5-min Rain = 0
KCR2 090914Z 07002KT M00/M01 A3029 RMK A01 T10041008  RH  097%=      5-min Rain = 0
KCR2 090915Z 07002KT M00/M01 A3029 RMK A01 T10041008  RH  097%=      5-min Rain = 0
KCR2 090916Z 06002KT M00/M01 A3029 RMK A01 T10041008  RH  097%=      5-min Rain = 0
KCR2 090917Z 06002KT M00/M01 A303 RMK A01 T10041008  RH  097%=      5-min Rain = 0
KCR2 090918Z 06001KT M00/M01 A303 RMK A01 T10041008  RH  097%=      5-min Rain = 0
KCR2 090919Z 06002KT M00/M01 A303 RMK A01 T10041008  RH  097%=      5-min Rain = 0
KCR2 090920Z 07002KT M00/M01 A303 RMK A01 T10041008  RH  097%=      5-min Rain = 0
KCR2 090921Z 07002KT M00/M01 A303 RMK A01 T10041008  RH  097%=      5-min Rain = 0
KCR2 090922Z 07002KT M00/M01 A303 RMK A01 T10041008  RH  097%=      5-min Rain = 0
KCR2 090923Z 07002KT M00/M01 A303 RMK A01 T10041008  RH  097%=      5-min Rain = 0
KCR2 090924Z 07002KT M00/M01 A303 RMK A01 T10041008  RH  097%=      5-min Rain = 0
KCR2 090925Z 06001KT M00/M01 A303 RMK A01 T10041009  RH  097%=      5-min Rain = 0
KCR2 090926Z 06001KT M01/M01 A303 RMK A01 T10051009  RH  097%=      5-min Rain = 0
KCR2 090927Z 06002KT M01/M01 A303 RMK A01 T10051009  RH  097%=      5-min Rain = 0
KCR2 090928Z 06002KT M01/M01 A303 RMK A01 T10051009  RH  097%=      5-min Rain = 0
KCR2 090929Z 06002KT M00/M01 A303 RMK A01 T10041009  RH  097%=      5-min Rain = 0
KCR2 090930Z 06002KT M01/M01 A303 RMK A01 T10051009  RH  097%=      5-min Rain = 0
KCR2 090931Z 06002KT M01/M01 A303 RMK A01 T10051009  RH  097%=      5-min Rain = 0
KCR2 090932Z 06002KT M01/M01 A303 RMK A01 T10051009  RH  097%=      5-min Rain = 0
KCR2 090933Z 06002KT M01/M01 A303 RMK A01 T10051009  RH  097%=      5-min Rain = 0
KCR2 090934Z 06002KT M01/M01 A303 RMK A01 T10051009  RH  097%=      5-min Rain = 0
KCR2 090935Z 06002KT M01/M01 A303 RMK A01 T10051009  RH  097%=      5-min Rain = 0
KCR2 090936Z 07002KT M01/M01 A303 RMK A01 T10051009  RH  097%=      5-min Rain = 0
KCR2 090937Z 07002KT M01/M01 A303 RMK A01 T10051009  RH  097%=      5-min Rain = 0
KCR2 090938Z 07002KT M01/M01 A303 RMK A01 T10051009  RH  097%=      5-min Rain = 0
KCR2 090939Z 07002KT M01/M01 A303 RMK A01 T10051009  RH  097%=      5-min Rain = 0
KCR2 090940Z 08002KT M01/M01 A303 RMK A01 T10051009  RH  097%=      5-min Rain = 0
KCR2 090941Z 08002KT M00/M01 A303 RMK A01 T10041009  RH  097%=      5-min Rain = 0
KCR2 090942Z 08002KT M01/M01 A3029 RMK A01 T10051009  RH  097%=      5-min Rain = 0
KCR2 090943Z 08002KT M01/M01 A3029 RMK A01 T10051009  RH  097%=      5-min Rain = 0
KCR2 090944Z 08002KT M01/M01 A3029 RMK A01 T10051009  RH  097%=      5-min Rain = 0
KCR2 090945Z 08002KT M01/M01 A3029 RMK A01 T10051009  RH  097%=      5-min Rain = 0
KCR2 090946Z 08002KT M01/M01 A3029 RMK A01 T10051009  RH  097%=      5-min Rain = 0
KCR2 090947Z 07003KT M01/M01 A303 RMK A01 T10061010  RH  097%=      5-min Rain = 0
KCR2 090948Z 07002KT M01/M01 A3029 RMK A01 T10061011  RH  097%=      5-min Rain = 0
KCR2 090949Z 07002KT M01/M01 A3029 RMK A01 T10071012  RH  097%=      5-min Rain = 0
KCR2 090950Z 08002KT M01/M01 A3029 RMK A01 T10071012  RH  097%=      5-min Rain = 0
KCR2 090951Z 08002KT M01/M01 A3029 RMK A01 T10071012  RH  096%=      5-min Rain = 0
KCR2 090952Z 08002KT M01/M01 A3029 RMK A01 T10081013  RH  096%=      5-min Rain = 0
KCR2 090953Z 08002KT M01/M01 A3029 RMK A01 T10081013  RH  096%=      5-min Rain = 0
KCR2 090954Z 08002KT M01/M01 A3029 RMK A01 T10091014  RH  096%=      5-min Rain = 0
KCR2 090955Z 08002KT M01/M01 A3029 RMK A01 T10091014  RH  096%=      5-min Rain = 0
KCR2 090956Z 07002KT M01/M01 A3029 RMK A01 T10091014  RH  096%=      5-min Rain = 0
KCR2 090957Z 07002KT M01/M01 A3029 RMK A01 T10091014  RH  096%=      5-min Rain = 0
KCR2 090958Z 07002KT M01/M02 A3029 RMK A01 T10101015  RH  096%=      5-min Rain = 0
KCR2 090959Z 07002KT M01/M02 A3029 RMK A01 T10101015  RH  096%=      5-min Rain = 0
KCR2 091000Z 07002KT M01/M02 A3029 RMK A01 T10101015  RH  097%=      5-min Rain = 0
KCR2 091001Z 07002KT M01/M02 A3029 RMK A01 T10101015  RH  097%=      5-min Rain = 0
KCR2 091002Z 08002KT M01/M02 A3029 RMK A01 T10101015  RH  097%=      5-min Rain = 0
KCR2 091003Z 08002KT M01/M02 A3029 RMK A01 T10101015  RH  097%=      5-min Rain = 0
KCR2 091004Z 08002KT M01/M02 A3029 RMK A01 T10111015  RH  097%=      5-min Rain = 0
KCR2 091005Z 07002KT M01/M02 A3029 RMK A01 T10111016  RH  097%=      5-min Rain = 0
KCR2 091006Z 06002KT M01/M02 A3029 RMK A01 T10111016  RH  097%=      5-min Rain = 0
KCR2 091007Z 06002KT M01/M02 A3029 RMK A01 T10111016  RH  097%=      5-min Rain = 0
KCR2 091008Z 06002KT M01/M02 A3029 RMK A01 T10111016  RH  097%=      5-min Rain = 0
KCR2 091009Z 07002KT M01/M02 A3029 RMK A01 T10111015  RH  097%=      5-min Rain = 0
KCR2 091010Z 07002KT M01/M02 A3029 RMK A01 T10111016  RH  097%=      5-min Rain = 0
KCR2 091011Z 06002KT M01/M02 A3029 RMK A01 T10111016  RH  097%=      5-min Rain = 0
KCR2 091012Z 06002KT M01/M02 A303 RMK A01 T10111016  RH  097%=      5-min Rain = 0
KCR2 091013Z 06002KT M01/M02 A303 RMK A01 T10111015  RH  097%=      5-min Rain = 0
KCR2 091014Z 05002KT M01/M02 A303 RMK A01 T10111016  RH  097%=      5-min Rain = 0
KCR2 091015Z 05002KT M01/M02 A303 RMK A01 T10101015  RH  097%=      5-min Rain = 0
KCR2 091016Z 05002KT M01/M02 A303 RMK A01 T10101015  RH  097%=      5-min Rain = 0
KCR2 091017Z 05002KT M01/M02 A303 RMK A01 T10111015  RH  097%=      5-min Rain = 0
KCR2 091018Z 06002KT M01/M02 A303 RMK A01 T10111015  RH  097%=      5-min Rain = 0
KCR2 091019Z 06002KT M01/M02 A303 RMK A01 T10101015  RH  097%=      5-min Rain = 0
KCR2 091020Z 06002KT M01/M01 A303 RMK A01 T10101014  RH  097%=      5-min Rain = 0
KCR2 091021Z 06002KT M01/M01 A303 RMK A01 T10101014  RH  097%=      5-min Rain = 0
KCR2 091022Z 06002KT M01/M02 A303 RMK A01 T10101015  RH  097%=      5-min Rain = 0
KCR2 091023Z 06002KT M01/M02 A303 RMK A01 T10111015  RH  097%=      5-min Rain = 0
KCR2 091024Z 06002KT M01/M02 A303 RMK A01 T10111015  RH  097%=      5-min Rain = 0
KCR2 091025Z 06002KT M01/M02 A303 RMK A01 T10111015  RH  097%=      5-min Rain = 0
KCR2 091026Z 06001KT M01/M02 A303 RMK A01 T10101015  RH  097%=      5-min Rain = 0
KCR2 091027Z 07001KT M01/M02 A303 RMK A01 T10111015  RH  097%=      5-min Rain = 0
KCR2 091028Z 07001KT M01/M02 A303 RMK A01 T10111015  RH  097%=      5-min Rain = 0
KCR2 091029Z 07001KT M01/M02 A303 RMK A01 T10111015  RH  097%=      5-min Rain = 0
KCR2 091030Z 07001KT M01/M02 A303 RMK A01 T10101015  RH  097%=      5-min Rain = 0
KCR2 091031Z 08001KT M01/M02 A303 RMK A01 T10111015  RH  097%=      5-min Rain = 0
KCR2 091032Z 09001KT M01/M02 A303 RMK A01 T10111015  RH  097%=      5-min Rain = 0
KCR2 091033Z 09001KT M01/M02 A303 RMK A01 T10111015  RH  097%=      5-min Rain = 0
KCR2 091034Z 09001KT M01/M02 A303 RMK A01 T10101015  RH  097%=      5-min Rain = 0
KCR2 091035Z 09001KT M01/M02 A303 RMK A01 T10111015  RH  097%=      5-min Rain = 0
KCR2 091036Z 09002KT M01/M01 A303 RMK A01 T10101014  RH  097%=      5-min Rain = 0
KCR2 091037Z 09002KT M01/M02 A303 RMK A01 T10111015  RH  097%=      5-min Rain = 0
KCR2 091038Z 10002KT M01/M02 A303 RMK A01 T10111015  RH  097%=      5-min Rain = 0
KCR2 091039Z 11002KT M01/M02 A303 RMK A01 T10111015  RH  097%=      5-min Rain = 0
KCR2 091040Z 11002KT M01/M02 A303 RMK A01 T10111015  RH  097%=      5-min Rain = 0
KCR2 091041Z 10002KT M01/M02 A303 RMK A01 T10111015  RH  097%=      5-min Rain = 0
KCR2 091042Z 10001KT M01/M01 A303 RMK A01 T10101014  RH  097%=      5-min Rain = 0
KCR2 091043Z 10001KT M01/M02 A303 RMK A01 T10101015  RH  097%=      5-min Rain = 0
KCR2 091044Z 10002KT M01/M02 A303 RMK A01 T10101015  RH  097%=      5-min Rain = 0
KCR2 091045Z 10002KT M01/M02 A303 RMK A01 T10111015  RH  097%=      5-min Rain = 0
KCR2 091046Z 10002KT M01/M02 A303 RMK A01 T10111015  RH  097%=      5-min Rain = 0
KCR2 091047Z 09002KT M01/M02 A303 RMK A01 T10101015  RH  097%=      5-min Rain = 0
KCR2 091048Z 08002KT M01/M02 A303 RMK A01 T10111015  RH  097%=      5-min Rain = 0
KCR2 091049Z 08002KT M01/M02 A303 RMK A01 T10111015  RH  097%=      5-min Rain = 0
KCR2 091050Z 08002KT M01/M02 A303 RMK A01 T10111016  RH  097%=      5-min Rain = 0
KCR2 091051Z 08003KT M01/M02 A303 RMK A01 T10111016  RH  096%=      5-min Rain = 0
KCR2 091052Z 08003KT M01/M02 A303 RMK A01 T10111016  RH  096%=      5-min Rain = 0
KCR2 091053Z 08003KT M01/M02 A303 RMK A01 T10121017  RH  096%=      5-min Rain = 0
KCR2 091054Z 08003KT M01/M02 A303 RMK A01 T10121018  RH  096%=      5-min Rain = 0
KCR2 091055Z 08003KT M01/M02 A303 RMK A01 T10121018  RH  096%=      5-min Rain = 0
KCR2 091056Z 08003KT M01/M02 A303 RMK A01 T10131018  RH  096%=      5-min Rain = 0
KCR2 091057Z 08003KT M01/M02 A303 RMK A01 T10131019  RH  096%=      5-min Rain = 0
KCR2 091058Z 08003KT M01/M02 A303 RMK A01 T10131019  RH  096%=      5-min Rain = 0
KCR2 091059Z 08003KT M01/M02 A303 RMK A01 T10131018  RH  096%=      5-min Rain = 0
KCR2 091100Z 08003KT M01/M02 A303 RMK A01 T10131018  RH  096%=      5-min Rain = 0
KCR2 091101Z 08003KT M01/M02 A303 RMK A01 T10131018  RH  096%=      5-min Rain = 0
KCR2 091102Z 08004KT M01/M02 A303 RMK A01 T10131018  RH  096%=      5-min Rain = 0
KCR2 091103Z 08004KT M01/M02 A303 RMK A01 T10141019  RH  096%=      5-min Rain = 0
KCR2 091104Z 08004KT M01/M02 A303 RMK A01 T10141020  RH  096%=      5-min Rain = 0
KCR2 091105Z 08003KT M01/M02 A303 RMK A01 T10141019  RH  096%=      5-min Rain = 0
KCR2 091106Z 09003KT M01/M02 A303 RMK A01 T10141019  RH  096%=      5-min Rain = 0
KCR2 091107Z 09003KT M01/M02 A303 RMK A01 T10141019  RH  096%=      5-min Rain = 0
KCR2 091108Z 08003KT M01/M02 A303 RMK A01 T10141019  RH  096%=      5-min Rain = 0
KCR2 091109Z 08004KT M01/M02 A303 RMK A01 T10141019  RH  096%=      5-min Rain = 0
KCR2 091110Z 08004KT M01/M02 A303 RMK A01 T10141019  RH  096%=      5-min Rain = 0
KCR2 091111Z 08003KT M01/M02 A3031 RMK A01 T10131018  RH  096%=      5-min Rain = 0
KCR2 091112Z 08003KT M01/M02 A3031 RMK A01 T10131018  RH  097%=      5-min Rain = 0
KCR2 091113Z 08003KT M01/M02 A3031 RMK A01 T10131018  RH  096%=      5-min Rain = 0
KCR2 091114Z 08003KT M01/M02 A3031 RMK A01 T10131018  RH  096%=      5-min Rain = 0
KCR2 091115Z 08004KT M01/M02 A3031 RMK A01 T10131018  RH  096%=      5-min Rain = 0
KCR2 091116Z 08004KT M01/M02 A3031 RMK A01 T10131018  RH  096%=      5-min Rain = 0
KCR2 091117Z 08004KT M01/M02 A3031 RMK A01 T10131018  RH  096%=      5-min Rain = 0
KCR2 091118Z 08004KT M01/M02 A3031 RMK A01 T10131018  RH  096%=      5-min Rain = 0
KCR2 091119Z 08004KT M01/M02 A303 RMK A01 T10121017  RH  096%=      5-min Rain = 0
KCR2 091120Z 07004KT M01/M02 A303 RMK A01 T10131018  RH  096%=      5-min Rain = 0
KCR2 091121Z 07004KT M01/M02 A303 RMK A01 T10121017  RH  096%=      5-min Rain = 0
KCR2 091122Z 07004KT M01/M02 A3031 RMK A01 T10121017  RH  096%=      5-min Rain = 0
KCR2 091123Z 07004KT M01/M02 A3031 RMK A01 T10121017  RH  096%=      5-min Rain = 0
KCR2 091124Z 07003KT M01/M02 A3031 RMK A01 T10121017  RH  096%=      5-min Rain = 0
KCR2 091125Z 07003KT M01/M02 A3031 RMK A01 T10121017  RH  096%=      5-min Rain = 0
KCR2 091126Z 06003KT M01/M02 A3031 RMK A01 T10121018  RH  096%=      5-min Rain = 0
KCR2 091127Z 06002KT M01/M02 A3031 RMK A01 T10121018  RH  096%=      5-min Rain = 0
KCR2 091128Z 06002KT M01/M02 A3031 RMK A01 T10131019  RH  096%=      5-min Rain = 0
KCR2 091129Z 06003KT M01/M02 A3031 RMK A01 T10131019  RH  096%=      5-min Rain = 0
KCR2 091130Z 06003KT M01/M02 A3031 RMK A01 T10131019  RH  096%=      5-min Rain = 0
KCR2 091131Z 06003KT M01/M02 A3031 RMK A01 T10141019  RH  096%=      5-min Rain = 0
KCR2 091132Z 06003KT M01/M02 A3031 RMK A01 T10141020  RH  096%=      5-min Rain = 0
KCR2 091133Z 06003KT M02/M02 A3031 RMK A01 T10151020  RH  096%=      5-min Rain = 0
KCR2 091134Z 06003KT M02/M02 A3031 RMK A01 T10151021  RH  096%=      5-min Rain = 0
KCR2 091135Z 06004KT M02/M02 A3031 RMK A01 T10151021  RH  096%=      5-min Rain = 0
KCR2 091136Z 07004KT M02/M02 A3031 RMK A01 T10161022  RH  096%=      5-min Rain = 0
KCR2 091137Z 07004KT M02/M02 A3031 RMK A01 T10161022  RH  096%=      5-min Rain = 0
KCR2 091138Z 07004KT M02/M02 A3031 RMK A01 T10161021  RH  096%=      5-min Rain = 0
KCR2 091139Z 07003KT M02/M02 A3031 RMK A01 T10161021  RH  096%=      5-min Rain = 0
KCR2 091140Z 08003KT M02/M02 A3031 RMK A01 T10161021  RH  096%=      5-min Rain = 0
KCR2 091141Z 08003KT M02/M02 A3031 RMK A01 T10151020  RH  096%=      5-min Rain = 0
KCR2 091142Z 07003KT M02/M02 A3031 RMK A01 T10151020  RH  096%=      5-min Rain = 0
KCR2 091143Z 07004KT M02/M02 A3031 RMK A01 T10151020  RH  096%=      5-min Rain = 0
KCR2 091144Z 06004KT M02/M02 A3031 RMK A01 T10151020  RH  096%=      5-min Rain = 0
KCR2 091145Z 06004KT M02/M02 A3031 RMK A01 T10151020  RH  096%=      5-min Rain = 0
KCR2 091146Z 06004KT M02/M02 A3031 RMK A01 T10151020  RH  096%=      5-min Rain = 0
KCR2 091147Z 07004KT M02/M02 A3031 RMK A01 T10151020  RH  096%=      5-min Rain = 0
KCR2 091148Z 07004KT M02/M02 A3031 RMK A01 T10151020  RH  096%=      5-min Rain = 0
KCR2 091149Z 07004KT M02/M02 A3031 RMK A01 T10151020  RH  096%=      5-min Rain = 0
KCR2 091150Z 07004KT M02/M02 A3031 RMK A01 T10151020  RH  096%=      5-min Rain = 0
KCR2 091151Z 07004KT M02/M02 A3031 RMK A01 T10151020  RH  096%=      5-min Rain = 0
KCR2 091152Z 07004KT M01/M02 A3031 RMK A01 T10141019  RH  096%=      5-min Rain = 0
KCR2 091153Z 08004KT M01/M02 A3031 RMK A01 T10141019  RH  096%=      5-min Rain = 0
KCR2 091154Z 08004KT M01/M02 A3031 RMK A01 T10141019  RH  096%=      5-min Rain = 0
KCR2 091155Z 08004KT M01/M02 A3031 RMK A01 T10141019  RH  096%=      5-min Rain = 0
KCR2 091156Z 08005KT M01/M02 A3031 RMK A01 T10131019  RH  096%=      5-min Rain = 0
KCR2 091157Z 08005KT M01/M02 A3031 RMK A01 T10141020  RH  096%=      5-min Rain = 0
KCR2 091158Z 08005KT M01/M02 A3031 RMK A01 T10141020  RH  096%=      5-min Rain = 0
KCR2 091159Z 08005KT M02/M02 A3031 RMK A01 T10151021  RH  096%=      5-min Rain = 0
KCR2 091200Z 08005KT M02/M02 A3031 RMK A01 T10151021  RH  096%=      5-min Rain = 0
KCR2 091201Z 08004KT M02/M02 A3031 RMK A01 T10151022  RH  096%=      5-min Rain = 0
KCR2 091202Z 08005KT M02/M02 A3031 RMK A01 T10161022  RH  096%=      5-min Rain = 0
KCR2 091203Z 08005KT M02/M02 A3031 RMK A01 T10161022  RH  096%=      5-min Rain = 0
KCR2 091204Z 08006KT M02/M02 A3031 RMK A01 T10161022  RH  096%=      5-min Rain = 0
KCR2 091205Z 08006KT M02/M02 A3032 RMK A01 T10161022  RH  096%=      5-min Rain = 0
KCR2 091206Z 08006KT M02/M02 A3032 RMK A01 T10161022  RH  096%=      5-min Rain = 0
KCR2 091207Z 08006KT M02/M02 A3032 RMK A01 T10161022  RH  096%=      5-min Rain = 0
KCR2 091208Z 08005KT M02/M02 A3032 RMK A01 T10151021  RH  096%=      5-min Rain = 0
KCR2 091209Z 09005KT M02/M02 A3032 RMK A01 T10151020  RH  096%=      5-min Rain = 0
KCR2 091210Z 09004KT M02/M02 A3032 RMK A01 T10151020  RH  096%=      5-min Rain = 0
KCR2 091211Z 09004KT M02/M02 A3032 RMK A01 T10151020  RH  096%=      5-min Rain = 0
KCR2 091212Z 09005KT M01/M02 A3032 RMK A01 T10141020  RH  096%=      5-min Rain = 0
KCR2 091213Z 08005KT M01/M02 A3032 RMK A01 T10141019  RH  096%=      5-min Rain = 0
KCR2 091214Z 08005KT M01/M02 A3032 RMK A01 T10141020  RH  096%=      5-min Rain = 0
KCR2 091215Z 09005KT M01/M02 A3032 RMK A01 T10141020  RH  096%=      5-min Rain = 0
KCR2 091216Z 09005KT M01/M02 A3032 RMK A01 T10141019  RH  096%=      5-min Rain = 0
KCR2 091217Z 09005KT M01/M02 A3032 RMK A01 T10141019  RH  096%=      5-min Rain = 0
KCR2 091218Z 09005KT M01/M02 A3032 RMK A01 T10141019  RH  096%=      5-min Rain = 0
KCR2 091219Z 09005KT M01/M02 A3032 RMK A01 T10131019  RH  096%=      5-min Rain = 0
KCR2 091220Z 09005KT M01/M02 A3032 RMK A01 T10141019  RH  096%=      5-min Rain = 0
KCR2 091221Z 09006KT M01/M02 A3032 RMK A01 T10141019  RH  096%=      5-min Rain = 0
KCR2 091222Z 08006KT M01/M02 A3032 RMK A01 T10141019  RH  096%=      5-min Rain = 0
KCR2 091223Z 08006KT M01/M02 A3032 RMK A01 T10141020  RH  096%=      5-min Rain = 0
KCR2 091224Z 08006KT M01/M02 A3032 RMK A01 T10141020  RH  096%=      5-min Rain = 0
KCR2 091225Z 08005KT M02/M02 A3032 RMK A01 T10151020  RH  096%=      5-min Rain = 0
KCR2 091226Z 09005KT M02/M02 A3032 RMK A01 T10151020  RH  096%=      5-min Rain = 0
KCR2 091227Z 09005KT M02/M02 A3032 RMK A01 T10151020  RH  096%=      5-min Rain = 0
KCR2 091228Z 09005KT M02/M02 A3032 RMK A01 T10151020  RH  096%=      5-min Rain = 0
KCR2 091229Z 09005KT M01/M02 A3032 RMK A01 T10141020  RH  096%=      5-min Rain = 0
KCR2 091230Z 08005KT M02/M02 A3033 RMK A01 T10151020  RH  096%=      5-min Rain = 0
KCR2 091231Z 08006KT M02/M02 A3033 RMK A01 T10151020  RH  096%=      5-min Rain = 0
KCR2 091232Z 08005KT M02/M02 A3033 RMK A01 T10151020  RH  096%=      5-min Rain = 0
KCR2 091233Z 08005KT M01/M02 A3033 RMK A01 T10141020  RH  096%=      5-min Rain = 0
KCR2 091234Z 09005KT M02/M02 A3033 RMK A01 T10151020  RH  096%=      5-min Rain = 0
KCR2 091235Z 09005KT M01/M02 A3033 RMK A01 T10141019  RH  096%=      5-min Rain = 0
KCR2 091236Z 08006KT M01/M02 A3033 RMK A01 T10141019  RH  096%=      5-min Rain = 0
KCR2 091237Z 08006KT M01/M02 A3033 RMK A01 T10141019  RH  096%=      5-min Rain = 0
KCR2 091238Z 08006KT M01/M02 A3033 RMK A01 T10141019  RH  096%=      5-min Rain = 0
KCR2 091239Z 09005KT M01/M02 A3033 RMK A01 T10141019  RH  096%=      5-min Rain = 0
KCR2 091240Z 09005KT M01/M02 A3033 RMK A01 T10141019  RH  096%=      5-min Rain = 0
KCR2 091241Z 10005KT M01/M02 A3033 RMK A01 T10131018  RH  096%=      5-min Rain = 0
KCR2 091242Z 10005KT M01/M02 A3033 RMK A01 T10131018  RH  096%=      5-min Rain = 0
KCR2 091243Z 09005KT M01/M02 A3033 RMK A01 T10131018  RH  096%=      5-min Rain = 0
KCR2 091244Z 09005KT M01/M02 A3033 RMK A01 T10131018  RH  096%=      5-min Rain = 0
KCR2 091245Z 09005KT M01/M02 A3033 RMK A01 T10131018  RH  096%=      5-min Rain = 0
KCR2 091246Z 09004KT M01/M02 A3033 RMK A01 T10131019  RH  096%=      5-min Rain = 0
KCR2 091247Z 09004KT M01/M02 A3033 RMK A01 T10131018  RH  096%=      5-min Rain = 0
KCR2 091248Z 09004KT M01/M02 A3033 RMK A01 T10131018  RH  096%=      5-min Rain = 0
KCR2 091249Z 08004KT M01/M02 A3033 RMK A01 T10131019  RH  096%=      5-min Rain = 0
KCR2 091250Z 08004KT M01/M02 A3034 RMK A01 T10141019  RH  096%=      5-min Rain = 0
KCR2 091251Z 08004KT M01/M02 A3034 RMK A01 T10141019  RH  096%=      5-min Rain = 0
KCR2 091252Z 07003KT M02/M02 A3034 RMK A01 T10151020  RH  096%=      5-min Rain = 0
KCR2 091253Z 07003KT M02/M02 A3034 RMK A01 T10151020  RH  096%=      5-min Rain = 0
KCR2 091254Z 07003KT M02/M02 A3034 RMK A01 T10151020  RH  096%=      5-min Rain = 0
KCR2 091255Z 07004KT M02/M02 A3034 RMK A01 T10151020  RH  096%=      5-min Rain = 0
KCR2 091256Z 07004KT M02/M02 A3034 RMK A01 T10151020  RH  096%=      5-min Rain = 0
KCR2 091257Z 07003KT M02/M02 A3034 RMK A01 T10151020  RH  096%=      5-min Rain = 0
KCR2 091258Z 08003KT M02/M02 A3034 RMK A01 T10151020  RH  096%=      5-min Rain = 0
KCR2 091259Z 07004KT M02/M02 A3034 RMK A01 T10151020  RH  096%=      5-min Rain = 0
KCR2 091300Z 07003KT M02/M02 A3034 RMK A01 T10151020  RH  096%=      5-min Rain = 0
KCR2 091301Z 07004KT M01/M02 A3034 RMK A01 T10141019  RH  096%=      5-min Rain = 0
KCR2 091302Z 07004KT M01/M02 A3034 RMK A01 T10141019  RH  096%=      5-min Rain = 0
KCR2 091303Z 07004KT M02/M02 A3034 RMK A01 T10151020  RH  096%=      5-min Rain = 0
KCR2 091304Z 07004KT M02/M02 A3034 RMK A01 T10151020  RH  096%=      5-min Rain = 0
KCR2 091305Z 07004KT M02/M02 A3034 RMK A01 T10151020  RH  096%=      5-min Rain = 0
KCR2 091306Z 07003KT M01/M02 A3034 RMK A01 T10141020  RH  096%=      5-min Rain = 0
KCR2 091307Z 08003KT M02/M02 A3034 RMK A01 T10151020  RH  096%=      5-min Rain = 0
KCR2 091308Z 08004KT M02/M02 A3034 RMK A01 T10151020  RH  096%=      5-min Rain = 0
KCR2 091309Z 08004KT M02/M02 A3034 RMK A01 T10151020  RH  096%=      5-min Rain = 0
KCR2 091310Z 08003KT M02/M02 A3034 RMK A01 T10151020  RH  096%=      5-min Rain = 0
KCR2 091311Z 09004KT M02/M02 A3034 RMK A01 T10151020  RH  096%=      5-min Rain = 0
KCR2 091312Z 09003KT M02/M02 A3034 RMK A01 T10151020  RH  096%=      5-min Rain = 0
KCR2 091313Z 09004KT M02/M02 A3034 RMK A01 T10151020  RH  096%=      5-min Rain = 0
KCR2 091314Z 09004KT M02/M02 A3034 RMK A01 T10151020  RH  096%=      5-min Rain = 0
KCR2 091315Z 09004KT M02/M02 A3034 RMK A01 T10151020  RH  096%=      5-min Rain = 0
KCR2 091316Z 09004KT M01/M02 A3034 RMK A01 T10141020  RH  096%=      5-min Rain = 0
KCR2 091317Z 09004KT M02/M02 A3034 RMK A01 T10151020  RH  096%=      5-min Rain = 0
KCR2 091318Z 10004KT M02/M02 A3034 RMK A01 T10151020  RH  096%=      5-min Rain = 0
KCR2 091319Z 11004KT M01/M02 A3034 RMK A01 T10141020  RH  096%=      5-min Rain = 0
KCR2 091320Z 10004KT M02/M02 A3034 RMK A01 T10151020  RH  096%=      5-min Rain = 0
KCR2 091321Z 11004KT M02/M02 A3034 RMK A01 T10151021  RH  096%=      5-min Rain = 0
KCR2 091322Z 11004KT M02/M02 A3034 RMK A01 T10151021  RH  096%=      5-min Rain = 0
KCR2 091323Z 11004KT M02/M02 A3034 RMK A01 T10151021  RH  096%=      5-min Rain = 0
KCR2 091324Z 11004KT M02/M02 A3035 RMK A01 T10151020  RH  096%=      5-min Rain = 0
KCR2 091325Z 11004KT M01/M02 A3035 RMK A01 T10141020  RH  096%=      5-min Rain = 0
KCR2 091326Z 11004KT M01/M02 A3035 RMK A01 T10141020  RH  096%=      5-min Rain = 0
KCR2 091327Z 11004KT M01/M02 A3035 RMK A01 T10141019  RH  096%=      5-min Rain = 0
KCR2 091328Z 11004KT M01/M02 A3035 RMK A01 T10141019  RH  096%=      5-min Rain = 0
KCR2 091329Z 11004KT M01/M02 A3035 RMK A01 T10141019  RH  096%=      5-min Rain = 0
KCR2 091330Z 10004KT M01/M02 A3035 RMK A01 T10141019  RH  096%=      5-min Rain = 0
KCR2 091331Z 10004KT M01/M02 A3035 RMK A01 T10141019  RH  096%=      5-min Rain = 0
KCR2 091332Z 10004KT M01/M02 A3035 RMK A01 T10141019  RH  096%=      5-min Rain = 0
KCR2 091333Z 10004KT M01/M02 A3035 RMK A01 T10141019  RH  096%=      5-min Rain = 0
KCR2 091334Z 10004KT M01/M02 A3035 RMK A01 T10141019  RH  096%=      5-min Rain = 0
KCR2 091335Z 10004KT M01/M02 A3035 RMK A01 T10141019  RH  096%=      5-min Rain = 0
KCR2 091336Z 10004KT M01/M02 A3035 RMK A01 T10141019  RH  096%=      5-min Rain = 0
KCR2 091337Z 10004KT M01/M02 A3035 RMK A01 T10141019  RH  096%=      5-min Rain = 0
KCR2 091338Z 10004KT M01/M02 A3035 RMK A01 T10141019  RH  096%=      5-min Rain = 0
KCR2 091339Z 10004KT M01/M02 A3035 RMK A01 T10141019  RH  096%=      5-min Rain = 0
KCR2 091340Z 10004KT M01/M02 A3036 RMK A01 T10141019  RH  096%=      5-min Rain = 0
KCR2 091341Z 10003KT M01/M02 A3036 RMK A01 T10141019  RH  096%=      5-min Rain = 0
KCR2 091342Z 10003KT M01/M02 A3036 RMK A01 T10141020  RH  096%=      5-min Rain = 0
KCR2 091343Z 09003KT M01/M02 A3036 RMK A01 T10141020  RH  096%=      5-min Rain = 0
KCR2 091344Z 09003KT M01/M02 A3036 RMK A01 T10141020  RH  096%=      5-min Rain = 0
KCR2 091345Z 09003KT M01/M02 A3036 RMK A01 T10141020  RH  096%=      5-min Rain = 0
KCR2 091346Z 09003KT M01/M02 A3036 RMK A01 T10141020  RH  096%=      5-min Rain = 0
KCR2 091347Z 09003KT M01/M02 A3036 RMK A01 T10141020  RH  096%=      5-min Rain = 0
KCR2 091348Z 09003KT M01/M02 A3036 RMK A01 T10141020  RH  096%=      5-min Rain = 0
KCR2 091349Z 08003KT M01/M02 A3036 RMK A01 T10141020  RH  096%=      5-min Rain = 0
KCR2 091350Z 09003KT M01/M02 A3036 RMK A01 T10141020  RH  096%=      5-min Rain = 0
KCR2 091351Z 08003KT M01/M02 A3036 RMK A01 T10141019  RH  096%=      5-min Rain = 0
KCR2 091352Z 08003KT M01/M02 A3036 RMK A01 T10141019  RH  096%=      5-min Rain = 0
KCR2 091353Z 09003KT M01/M02 A3036 RMK A01 T10131019  RH  096%=      5-min Rain = 0
KCR2 091354Z 08003KT M01/M02 A3036 RMK A01 T10131019  RH  096%=      5-min Rain = 0
KCR2 091355Z 09004KT M01/M02 A3036 RMK A01 T10131019  RH  096%=      5-min Rain = 0
KCR2 091356Z 08004KT M01/M02 A3036 RMK A01 T10131018  RH  096%=      5-min Rain = 0
KCR2 091357Z 08004KT M01/M02 A3036 RMK A01 T10121018  RH  096%=      5-min Rain = 0
KCR2 091358Z 08004KT M01/M02 A3036 RMK A01 T10121018  RH  096%=      5-min Rain = 0
KCR2 091359Z 08004KT M01/M02 A3036 RMK A01 T10111017  RH  096%=      5-min Rain = 0
KCR2 091400Z 08004KT M01/M02 A3036 RMK A01 T10111017  RH  096%=      5-min Rain = 0
KCR2 091401Z 08004KT M01/M02 A3036 RMK A01 T10101016  RH  096%=      5-min Rain = 0
KCR2 091402Z 08004KT M01/M02 A3036 RMK A01 T10101016  RH  096%=      5-min Rain = 0
KCR2 091403Z 08004KT M01/M02 A3036 RMK A01 T10091015  RH  096%=      5-min Rain = 0
KCR2 091404Z 09004KT M01/M02 A3036 RMK A01 T10101016  RH  096%=      5-min Rain = 0
KCR2 091405Z 09004KT M01/M02 A3036 RMK A01 T10091015  RH  096%=      5-min Rain = 0
KCR2 091406Z 09004KT M01/M02 A3036 RMK A01 T10091015  RH  095%=      5-min Rain = 0
KCR2 091407Z 09004KT M01/M02 A3036 RMK A01 T10091015  RH  095%=      5-min Rain = 0
KCR2 091408Z 09004KT M01/M01 A3036 RMK A01 T10081014  RH  095%=      5-min Rain = 0
KCR2 091409Z 09004KT M01/M01 A3036 RMK A01 T10081014  RH  095%=      5-min Rain = 0
KCR2 091410Z 09004KT M01/M01 A3036 RMK A01 T10071013  RH  095%=      5-min Rain = 0
KCR2 091411Z 08004KT M01/M01 A3036 RMK A01 T10071014  RH  095%=      5-min Rain = 0
KCR2 091412Z 08004KT M01/M01 A3036 RMK A01 T10061013  RH  095%=      5-min Rain = 0
KCR2 091413Z 08004KT M01/M01 A3036 RMK A01 T10061013  RH  095%=      5-min Rain = 0
KCR2 091414Z 08003KT M01/M01 A3036 RMK A01 T10061013  RH  095%=      5-min Rain = 0
KCR2 091415Z 08003KT M01/M01 A3036 RMK A01 T10051013  RH  095%=      5-min Rain = 0
KCR2 091416Z 09003KT M01/M01 A3037 RMK A01 T10051012  RH  095%=      5-min Rain = 0
KCR2 091417Z 09003KT M01/M01 A3037 RMK A01 T10051012  RH  095%=      5-min Rain = 0
KCR2 091418Z 09003KT M01/M01 A3037 RMK A01 T10051012  RH  095%=      5-min Rain = 0
KCR2 091419Z 08003KT M01/M01 A3037 RMK A01 T10051012  RH  095%=      5-min Rain = 0
KCR2 091420Z 08003KT M00/M01 A3037 RMK A01 T10041012  RH  095%=      5-min Rain = 0
KCR2 091421Z 08003KT M00/M01 A3037 RMK A01 T10041012  RH  095%=      5-min Rain = 0
KCR2 091422Z 08003KT M00/M01 A3037 RMK A01 T10041011  RH  095%=      5-min Rain = 0
KCR2 091423Z 08003KT M00/M01 A3037 RMK A01 T10031011  RH  095%=      5-min Rain = 0
KCR2 091424Z 07003KT M00/M01 A3037 RMK A01 T10031011  RH  095%=      5-min Rain = 0
KCR2 091425Z 07003KT M00/M01 A3037 RMK A01 T10031011  RH  094%=      5-min Rain = 0
KCR2 091426Z 07003KT M00/M01 A3037 RMK A01 T10031011  RH  094%=      5-min Rain = 0
KCR2 091427Z 07003KT M00/M01 A3037 RMK A01 T10021010  RH  094%=      5-min Rain = 0
KCR2 091428Z 07003KT M00/M01 A3038 RMK A01 T10021010  RH  095%=      5-min Rain = 0
KCR2 091429Z 07003KT M00/M01 A3038 RMK A01 T10021009  RH  095%=      5-min Rain = 0
KCR2 091430Z 07003KT M00/M01 A3038 RMK A01 T10011009  RH  095%=      5-min Rain = 0
KCR2 091431Z 07003KT M00/M01 A3038 RMK A01 T10011008  RH  095%=      5-min Rain = 0
KCR2 091432Z 07003KT M00/M01 A3038 RMK A01 T10011008  RH  095%=      5-min Rain = 0
KCR2 091433Z 06003KT 00/01 A3038 RMK A01 T00-000-8  RH  095%=      5-min Rain = 0
KCR2 091434Z 06004KT 00/01 A3038 RMK A01 T000000-7  RH  095%=      5-min Rain = 0
KCR2 091435Z 06004KT 00/M01 A3038 RMK A01 T00011007  RH  095%=      5-min Rain = 0
KCR2 091436Z 06003KT 00/M01 A3038 RMK A01 T00011007  RH  095%=      5-min Rain = 0
KCR2 091437Z 06003KT 00/M01 A3038 RMK A01 T00011007  RH  095%=      5-min Rain = 0
KCR2 091438Z 06004KT 00/M01 A3038 RMK A01 T00021006  RH  095%=      5-min Rain = 0
KCR2 091439Z 06004KT 00/M01 A3038 RMK A01 T00021006  RH  095%=      5-min Rain = 0
KCR2 091440Z 06004KT 00/M01 A3038 RMK A01 T00021006  RH  094%=      5-min Rain = 0
KCR2 091441Z 06004KT 00/M01 A3038 RMK A01 T00021006  RH  094%=      5-min Rain = 0
KCR2 091442Z 05003KT 00/M01 A3038 RMK A01 T00031005  RH  094%=      5-min Rain = 0
KCR2 091443Z 06003KT 00/M01 A3038 RMK A01 T00031005  RH  094%=      5-min Rain = 0
KCR2 091444Z 06003KT 00/M01 A3038 RMK A01 T00041005  RH  094%=      5-min Rain = 0
KCR2 091445Z 06004KT 00/M01 A3038 RMK A01 T00041005  RH  094%=      5-min Rain = 0
KCR2 091446Z 06003KT 00/M01 A3038 RMK A01 T00041005  RH  094%=      5-min Rain = 0
KCR2 091447Z 07003KT 00/M01 A3039 RMK A01 T00041005  RH  094%=      5-min Rain = 0
KCR2 091448Z 07003KT 00/M01 A3039 RMK A01 T00041005  RH  094%=      5-min Rain = 0
KCR2 091449Z 07002KT 01/M00 A3039 RMK A01 T00051004  RH  094%=      5-min Rain = 0
KCR2 091450Z 06003KT 01/M00 A3039 RMK A01 T00061004  RH  094%=      5-min Rain = 0
KCR2 091451Z 06002KT 01/M00 A3039 RMK A01 T00061003  RH  093%=      5-min Rain = 0
KCR2 091452Z 07002KT 01/M00 A3039 RMK A01 T00071003  RH  093%=      5-min Rain = 0
KCR2 091453Z 06002KT 01/M00 A3039 RMK A01 T00071002  RH  093%=      5-min Rain = 0
KCR2 091454Z 06003KT 01/M00 A3039 RMK A01 T00081002  RH  093%=      5-min Rain = 0
KCR2 091455Z 06003KT 01/M00 A3039 RMK A01 T00081002  RH  093%=      5-min Rain = 0
KCR2 091456Z 06004KT 01/M00 A3039 RMK A01 T00101001  RH  093%=      5-min Rain = 0
KCR2 091457Z 06003KT 01/00 A3039 RMK A01 T00100001  RH  093%=      5-min Rain = 0
KCR2 091458Z 07003KT 01/00 A3039 RMK A01 T00110001  RH  093%=      5-min Rain = 0
KCR2 091459Z 06003KT 01/00 A3039 RMK A01 T00110000  RH  092%=      5-min Rain = 0
KCR2 091500Z 06003KT 01/00 A3039 RMK A01 T00120001  RH  092%=      5-min Rain = 0
KCR2 091501Z 07003KT 01/00 A3039 RMK A01 T00130001  RH  092%=      5-min Rain = 0
KCR2 091502Z 06003KT 01/00 A3039 RMK A01 T00130002  RH  092%=      5-min Rain = 0
KCR2 091503Z 06004KT 01/00 A3039 RMK A01 T00140003  RH  093%=      5-min Rain = 0
KCR2 091504Z 06004KT 02/00 A3039 RMK A01 T00150004  RH  093%=      5-min Rain = 0
KCR2 091505Z 06003KT 02/00 A3039 RMK A01 T00160004  RH  092%=      5-min Rain = 0
KCR2 091506Z 06004KT 02/01 A3039 RMK A01 T00170005  RH  092%=      5-min Rain = 0
KCR2 091507Z 06004KT 02/01 A3039 RMK A01 T00180006  RH  092%=      5-min Rain = 0
KCR2 091508Z 06004KT 02/01 A3039 RMK A01 T00190007  RH  092%=      5-min Rain = 0
KCR2 091509Z 07005KT 02/01 A3039 RMK A01 T00190007  RH  091%=      5-min Rain = 0
KCR2 091510Z 07004KT 02/01 A3039 RMK A01 T00200006  RH  090%=      5-min Rain = 0
KCR2 091511Z 06004KT 02/01 A3039 RMK A01 T00200006  RH  090%=      5-min Rain = 0
KCR2 091512Z 07005KT 02/01 A3039 RMK A01 T00210007  RH  090%=      5-min Rain = 0
KCR2 091513Z 06005KT 02/01 A3039 RMK A01 T00210006  RH  090%=      5-min Rain = 0
KCR2 091514Z 07005KT 02/01 A3039 RMK A01 T00220005  RH  089%=      5-min Rain = 0
KCR2 091515Z 07005KT 02/01 A3039 RMK A01 T00220005  RH  089%=      5-min Rain = 0
KCR2 091516Z 07004KT 02/01 A3039 RMK A01 T00230005  RH  088%=      5-min Rain = 0
KCR2 091517Z 06005KT 02/01 A3039 RMK A01 T00230005  RH  088%=      5-min Rain = 0
KCR2 091518Z 07006KT 02/01 A3039 RMK A01 T00240006  RH  088%=      5-min Rain = 0
KCR2 091519Z 07004KT 02/01 A3039 RMK A01 T00240006  RH  088%=      5-min Rain = 0
KCR2 091520Z 08005KT 03/01 A3039 RMK A01 T00250008  RH  088%=      5-min Rain = 0
KCR2 091521Z 07006KT 03/01 A3039 RMK A01 T00260007  RH  087%=      5-min Rain = 0
KCR2 091522Z 07005KT 03/01 A3039 RMK A01 T00260006  RH  086%=      5-min Rain = 0
KCR2 091523Z 07005KT 03/00 A3039 RMK A01 T00260004  RH  085%=      5-min Rain = 0
KCR2 091524Z 07005KT 03/01 A3039 RMK A01 T00270005  RH  086%=      5-min Rain = 0
KCR2 091525Z 06005KT 03/01 A3039 RMK A01 T00270006  RH  086%=      5-min Rain = 0
KCR2 091526Z 06006KT 03/01 A3039 RMK A01 T00270005  RH  085%=      5-min Rain = 0
KCR2 091527Z 07006KT 03/01 A3039 RMK A01 T00280006  RH  085%=      5-min Rain = 0
KCR2 091528Z 07006KT 03/00 A3039 RMK A01 T00280003  RH  083%=      5-min Rain = 0
KCR2 091529Z 06005KT 03/00 A3039 RMK A01 T00290003  RH  083%=      5-min Rain = 0
KCR2 091530Z 06005KT 03/01 A3039 RMK A01 T00300006  RH  084%=      5-min Rain = 0
KCR2 091531Z 06006KT 03/00 A304 RMK A01 T00300004  RH  083%=      5-min Rain = 0
KCR2 091532Z 06004KT 03/01 A304 RMK A01 T00310005  RH  083%=      5-min Rain = 0
KCR2 091533Z 06005KT 03/01 A304 RMK A01 T00320008  RH  085%=      5-min Rain = 0
KCR2 091534Z 06005KT 03/01 A304 RMK A01 T00320006  RH  083%=      5-min Rain = 0
KCR2 091535Z 05006KT 03/01 A304 RMK A01 T00330006  RH  082%=      5-min Rain = 0
KCR2 091536Z 06005KT 03/00 A304 RMK A01 T00320003  RH  081%=      5-min Rain = 0
KCR2 091537Z 05005KT 03/00 A304 RMK A01 T00330004  RH  082%=      5-min Rain = 0
KCR2 091538Z 07005KT 03/01 A304 RMK A01 T00330006  RH  082%=      5-min Rain = 0
KCR2 091539Z 05005KT 03/01 A304 RMK A01 T00340008  RH  083%=      5-min Rain = 0
KCR2 091540Z 06004KT 04/00 A304 RMK A01 T00350004  RH  080%=      5-min Rain = 0
KCR2 091541Z 06004KT 04/01 A304 RMK A01 T00350006  RH  081%=      5-min Rain = 0
KCR2 091542Z 07005KT 04/01 A304 RMK A01 T00350005  RH  081%=      5-min Rain = 0
KCR2 091543Z 07005KT 04/00 A304 RMK A01 T00350001  RH  079%=      5-min Rain = 0
KCR2 091544Z 06006KT 04/00 A304 RMK A01 T00350002  RH  079%=      5-min Rain = 0
KCR2 091545Z 06006KT 04/00 A304 RMK A01 T00360003  RH  079%=      5-min Rain = 0
KCR2 091546Z 07005KT 04/00 A3041 RMK A01 T00360000  RH  077%=      5-min Rain = 0
KCR2 091547Z 09006KT 04/00 A3041 RMK A01 T00360001  RH  078%=      5-min Rain = 0
KCR2 091548Z 08006KT 04/00 A3041 RMK A01 T00360001  RH  078%=      5-min Rain = 0
KCR2 091549Z 08005KT 04/00 A3041 RMK A01 T00370003  RH  078%=      5-min Rain = 0
KCR2 091550Z 08004KT 04/00 A3041 RMK A01 T00370004  RH  079%=      5-min Rain = 0
KCR2 091551Z 07004KT 04/00 A3041 RMK A01 T00380003  RH  078%=      5-min Rain = 0
KCR2 091552Z 07005KT 04/00 A3041 RMK A01 T00380002  RH  077%=      5-min Rain = 0
KCR2 091553Z 07004KT 04/00 A3041 RMK A01 T00380003  RH  078%=      5-min Rain = 0
KCR2 091554Z 06003KT 04/01 A3041 RMK A01 T00390007  RH  080%=      5-min Rain = 0
KCR2 091555Z 08005KT 04/01 A3041 RMK A01 T00410010  RH  081%=      5-min Rain = 0
KCR2 091556Z 08006KT 04/01 A3041 RMK A01 T00410005  RH  077%=      5-min Rain = 0
KCR2 091557Z 09006KT 04/00 A3041 RMK A01 T00410002  RH  076%=      5-min Rain = 0
KCR2 091558Z 08006KT 04/00 A3041 RMK A01 T00400000  RH  075%=      5-min Rain = 0
KCR2 091559Z 08006KT 04/00 A3041 RMK A01 T00400001  RH  075%=      5-min Rain = 0
KCR2 091600Z 08006KT 04/00 A3041 RMK A01 T00410001  RH  075%=      5-min Rain = 0
KCR2 091601Z 08006KT 04/00 A3041 RMK A01 T00410001  RH  075%=      5-min Rain = 0
KCR2 091602Z 07005KT 04/00 A3041 RMK A01 T00410003  RH  076%=      5-min Rain = 0
KCR2 091603Z 07005KT 04/00 A3041 RMK A01 T00420001  RH  075%=      5-min Rain = 0
KCR2 091604Z 10005KT 04/00 A3041 RMK A01 T00420003  RH  076%=      5-min Rain = 0
KCR2 091605Z 09005KT 04/00 A3041 RMK A01 T00420002  RH  075%=      5-min Rain = 0
KCR2 091606Z 08005KT 04/00 A3041 RMK A01 T00420001  RH  074%=      5-min Rain = 0
KCR2 091607Z 07006KT 04/00 A3041 RMK A01 T00430001  RH  074%=      5-min Rain = 0
KCR2 091608Z 08005KT 04/01 A3042 RMK A01 T00430005  RH  076%=      5-min Rain = 0
KCR2 091609Z 08004KT 05/01 A3042 RMK A01 T00450005  RH  075%=      5-min Rain = 0
KCR2 091610Z 07004KT 05/01 A3042 RMK A01 T00460006  RH  076%=      5-min Rain = 0
KCR2 091611Z 09005KT 05/00 A3042 RMK A01 T00460004  RH  074%=      5-min Rain = 0
KCR2 091612Z 07005KT 05/00 A3042 RMK A01 T00460004  RH  074%=      5-min Rain = 0
KCR2 091613Z 08005KT 05/00 A3042 RMK A01 T00460004  RH  074%=      5-min Rain = 0
KCR2 091614Z 09006KT 05/M00 A3042 RMK A01 T00461001  RH  071%=      5-min Rain = 0
KCR2 091615Z 09005KT 05/00 A3042 RMK A01 T00460002  RH  073%=      5-min Rain = 0
KCR2 091616Z 08005KT 05/00 A3042 RMK A01 T00470003  RH  073%=      5-min Rain = 0
KCR2 091617Z 09005KT 05/M00 A3042 RMK A01 T00461001  RH  071%=      5-min Rain = 0
KCR2 091618Z 09005KT 05/00 A3042 RMK A01 T00460001  RH  072%=      5-min Rain = 0
KCR2 091619Z 09005KT 05/M00 A3042 RMK A01 T00471002  RH  070%=      5-min Rain = 0
KCR2 091620Z 09005KT 05/M00 A3042 RMK A01 T00461004  RH  070%=      5-min Rain = 0
KCR2 091621Z 08006KT 05/M00 A3042 RMK A01 T00461001  RH  071%=      5-min Rain = 0
KCR2 091622Z 09006KT 05/M00 A3042 RMK A01 T00461002  RH  071%=      5-min Rain = 0
KCR2 091623Z 10006KT 05/M01 A3042 RMK A01 T00461005  RH  070%=      5-min Rain = 0
KCR2 091624Z 10007KT 05/M00 A3042 RMK A01 T00461003  RH  070%=      5-min Rain = 0
KCR2 091625Z 10005KT 05/M00 A3042 RMK A01 T00461003  RH  071%=      5-min Rain = 0
KCR2 091626Z 09007KT 05/M00 A3042 RMK A01 T00461003  RH  070%=      5-min Rain = 0
KCR2 091627Z 10006KT 05/M00 A3041 RMK A01 T00461004  RH  070%=      5-min Rain = 0
KCR2 091628Z 09005KT 05/M00 A3041 RMK A01 T00451004  RH  071%=      5-min Rain = 0
KCR2 091629Z 09007KT 05/M00 A3041 RMK A01 T00461003  RH  070%=      5-min Rain = 0
KCR2 091630Z 09007KT 05/M00 A3041 RMK A01 T00471002  RH  071%=      5-min Rain = 0
KCR2 091631Z 10006KT 05/M00 A3041 RMK A01 T00481001  RH  071%=      5-min Rain = 0
KCR2 091632Z 10007KT 05/M00 A3041 RMK A01 T00481002  RH  070%=      5-min Rain = 0
KCR2 091633Z 10007KT 05/M00 A3041 RMK A01 T00481003  RH  070%=      5-min Rain = 0
KCR2 091634Z 09006KT 05/M00 A3041 RMK A01 T00471001  RH  071%=      5-min Rain = 0
KCR2 091635Z 09008KT 05/M00 A3041 RMK A01 T00481002  RH  070%=      5-min Rain = 0
KCR2 091636Z 10007KT 05/00 A3041 RMK A01 T004800-0  RH  071%=      5-min Rain = 0
KCR2 091637Z 08006KT 05/00 A3041 RMK A01 T005000-0  RH  070%=      5-min Rain = 0
KCR2 091638Z 08006KT 05/M00 A3041 RMK A01 T00501001  RH  070%=      5-min Rain = 0
KCR2 091639Z 07006KT 05/M00 A3041 RMK A01 T00501002  RH  069%=      5-min Rain = 0
KCR2 091640Z 07008KT 05/M00 A3041 RMK A01 T00501001  RH  069%=      5-min Rain = 0
KCR2 091641Z 07006KT 05/M00 A3041 RMK A01 T00501002  RH  069%=      5-min Rain = 0
KCR2 091642Z 06006KT 05/00 A3041 RMK A01 T00500000  RH  070%=      5-min Rain = 0
KCR2 091643Z 06007KT 05/00 A3041 RMK A01 T005000-0  RH  070%=      5-min Rain = 0
KCR2 091644Z 07006KT 05/M00 A3041 RMK A01 T00511001  RH  069%=      5-min Rain = 0
KCR2 091645Z 06005KT 05/00 A3041 RMK A01 T005200-0  RH  069%=      5-min Rain = 0
KCR2 091646Z 08005KT 05/00 A3041 RMK A01 T005200-0  RH  069%=      5-min Rain = 0
KCR2 091647Z 09006KT 05/M00 A3041 RMK A01 T00531002  RH  068%=      5-min Rain = 0
KCR2 091648Z 08005KT 05/M00 A3041 RMK A01 T00521001  RH  068%=      5-min Rain = 0
KCR2 091649Z 10006KT 05/M00 A3041 RMK A01 T00521002  RH  068%=      5-min Rain = 0
KCR2 091650Z 10007KT 05/00 A3041 RMK A01 T00530001  RH  070%=      5-min Rain = 0
KCR2 091651Z 09006KT 05/M00 A3041 RMK A01 T00531003  RH  067%=      5-min Rain = 0
KCR2 091652Z 09007KT 05/00 A3041 RMK A01 T00540000  RH  069%=      5-min Rain = 0
KCR2 091653Z 10006KT 05/M00 A3042 RMK A01 T00531004  RH  067%=      5-min Rain = 0
KCR2 091654Z 09005KT 05/M00 A3042 RMK A01 T00521004  RH  067%=      5-min Rain = 0
KCR2 091655Z 08005KT 05/M00 A3042 RMK A01 T00511003  RH  068%=      5-min Rain = 0
KCR2 091656Z 07004KT 05/M00 A3042 RMK A01 T00521004  RH  067%=      5-min Rain = 0
KCR2 091657Z 09006KT 05/M00 A3042 RMK A01 T00531004  RH  067%=      5-min Rain = 0
KCR2 091658Z 07005KT 05/M00 A3042 RMK A01 T00531004  RH  066%=      5-min Rain = 0
KCR2 091659Z 09005KT 05/M00 A3042 RMK A01 T00541003  RH  067%=      5-min Rain = 0
KCR2 091700Z 09005KT 05/M00 A3042 RMK A01 T00541002  RH  067%=      5-min Rain = 0
KCR2 091701Z 09005KT 05/M00 A3042 RMK A01 T00541001  RH  068%=      5-min Rain = 0
KCR2 091702Z 08005KT 05/00 A3041 RMK A01 T005400-0  RH  068%=      5-min Rain = 0
KCR2 091703Z 08005KT 05/M00 A3041 RMK A01 T00541001  RH  067%=      5-min Rain = 0
KCR2 091704Z 09006KT 06/00 A3041 RMK A01 T00550000  RH  068%=      5-min Rain = 0
KCR2 091705Z 09007KT 06/00 A3041 RMK A01 T00570001  RH  067%=      5-min Rain = 0
KCR2 091706Z 07008KT 06/00 A3042 RMK A01 T005800-0  RH  066%=      5-min Rain = 0
KCR2 091707Z 07006KT 06/M00 A3042 RMK A01 T00571002  RH  066%=      5-min Rain = 0
KCR2 091708Z 05004KT 06/M01 A3042 RMK A01 T00551005  RH  065%=      5-min Rain = 0
KCR2 091709Z 05003KT 05/M00 A3042 RMK A01 T00541002  RH  067%=      5-min Rain = 0
KCR2 091710Z 08005KT 06/00 A3042 RMK A01 T005600-0  RH  067%=      5-min Rain = 0
KCR2 091711Z 08006KT 06/M00 A3041 RMK A01 T00571003  RH  065%=      5-min Rain = 0
KCR2 091712Z 09006KT 06/M00 A3041 RMK A01 T00571003  RH  065%=      5-min Rain = 0
KCR2 091713Z 08005KT 06/M01 A3041 RMK A01 T00571005  RH  064%=      5-min Rain = 0
KCR2 091714Z 09005KT 06/M00 A3041 RMK A01 T00581002  RH  066%=      5-min Rain = 0
KCR2 091715Z 07005KT 06/00 A3041 RMK A01 T005800-0  RH  066%=      5-min Rain = 0
KCR2 091716Z 07007KT 06/00 A3041 RMK A01 T00600001  RH  066%=      5-min Rain = 0
KCR2 091717Z 08007KT 06/M00 A3041 RMK A01 T00601001  RH  065%=      5-min Rain = 0
KCR2 091718Z 06005KT 06/M00 A3041 RMK A01 T00591003  RH  065%=      5-min Rain = 0
KCR2 091719Z 06004KT 06/M00 A3041 RMK A01 T00581004  RH  064%=      5-min Rain = 0
KCR2 091720Z 08005KT 06/M00 A3041 RMK A01 T00581004  RH  065%=      5-min Rain = 0
KCR2 091721Z 09005KT 06/00 A3041 RMK A01 T00580001  RH  067%=      5-min Rain = 0
KCR2 091722Z 09004KT 06/00 A3041 RMK A01 T00610004  RH  067%=      5-min Rain = 0
KCR2 091723Z 09003KT 06/00 A3041 RMK A01 T00620000  RH  065%=      5-min Rain = 0
KCR2 091724Z 10004KT 06/M00 A3041 RMK A01 T00621001  RH  064%=      5-min Rain = 0
KCR2 091725Z 08006KT 06/00 A3041 RMK A01 T00620000  RH  065%=      5-min Rain = 0
KCR2 091726Z 10005KT 06/M00 A3041 RMK A01 T00621002  RH  063%=      5-min Rain = 0
KCR2 091727Z 11004KT 06/00 A3041 RMK A01 T00620001  RH  065%=      5-min Rain = 0
KCR2 091728Z 09004KT 06/00 A3041 RMK A01 T00620002  RH  065%=      5-min Rain = 0
KCR2 091729Z 06005KT 06/00 A3041 RMK A01 T00630002  RH  065%=      5-min Rain = 0
KCR2 091730Z 07006KT 06/M00 A3041 RMK A01 T00641001  RH  063%=      5-min Rain = 0
KCR2 091731Z 06005KT 06/M00 A3041 RMK A01 T00631002  RH  063%=      5-min Rain = 0
KCR2 091732Z 08005KT 06/M00 A3041 RMK A01 T00631003  RH  063%=      5-min Rain = 0
KCR2 091733Z 09005KT 06/M00 A3041 RMK A01 T00631004  RH  062%=      5-min Rain = 0
KCR2 091734Z 07005KT 06/00 A3041 RMK A01 T00630003  RH  065%=      5-min Rain = 0
KCR2 091735Z 05006KT 07/00 A3041 RMK A01 T00660002  RH  064%=      5-min Rain = 0
KCR2 091736Z 05005KT 07/M00 A3041 RMK A01 T00661003  RH  062%=      5-min Rain = 0
KCR2 091737Z 07006KT 06/M01 A3041 RMK A01 T00641005  RH  061%=      5-min Rain = 0
KCR2 091738Z 07006KT 06/M01 A3041 RMK A01 T00631005  RH  061%=      5-min Rain = 0
KCR2 091739Z 07004KT 06/M01 A3041 RMK A01 T00631007  RH  061%=      5-min Rain = 0
KCR2 091740Z 09004KT 06/M01 A3041 RMK A01 T00631008  RH  061%=      5-min Rain = 0
KCR2 091741Z 09004KT 06/M00 A3041 RMK A01 T00641003  RH  062%=      5-min Rain = 0
KCR2 091742Z 08006KT 07/M00 A3041 RMK A01 T00661001  RH  062%=      5-min Rain = 0
KCR2 091743Z 05007KT 07/00 A3041 RMK A01 T00690001  RH  062%=      5-min Rain = 0
KCR2 091744Z 06005KT 07/M01 A3041 RMK A01 T00681005  RH  060%=      5-min Rain = 0
KCR2 091745Z 07004KT 07/M01 A3041 RMK A01 T00661005  RH  060%=      5-min Rain = 0
KCR2 091746Z 06004KT 07/M00 A3041 RMK A01 T00661004  RH  061%=      5-min Rain = 0
KCR2 091747Z 05002KT 07/M00 A3041 RMK A01 T00661004  RH  061%=      5-min Rain = 0
KCR2 091748Z 04003KT 07/M01 A3041 RMK A01 T00661006  RH  060%=      5-min Rain = 0
KCR2 091749Z 08004KT 07/00 A3041 RMK A01 T00680004  RH  063%=      5-min Rain = 0
KCR2 091750Z 08006KT 07/00 A3041 RMK A01 T00710002  RH  061%=      5-min Rain = 0
KCR2 091751Z 05007KT 07/00 A3041 RMK A01 T007100-0  RH  061%=      5-min Rain = 0
KCR2 091752Z 06005KT 07/M00 A3041 RMK A01 T00701002  RH  060%=      5-min Rain = 0
KCR2 091753Z 06004KT 07/M00 A3041 RMK A01 T00691002  RH  060%=      5-min Rain = 0
KCR2 091754Z 05003KT 07/M00 A304 RMK A01 T00691004  RH  060%=      5-min Rain = 0
KCR2 091755Z 07002KT 07/M00 A304 RMK A01 T00691004  RH  060%=      5-min Rain = 0
KCR2 091756Z 11003KT 07/00 A304 RMK A01 T00700001  RH  062%=      5-min Rain = 0
KCR2 091757Z 09004KT 07/00 A304 RMK A01 T00710003  RH  062%=      5-min Rain = 0
KCR2 091758Z 07005KT 07/00 A304 RMK A01 T007200-0  RH  060%=      5-min Rain = 0
KCR2 091759Z 08005KT 07/00 A304 RMK A01 T00720002  RH  061%=      5-min Rain = 0
KCR2 091800Z 09005KT 07/00 A304 RMK A01 T00720001  RH  061%=      5-min Rain = 0
KCR2 091801Z 06008KT 07/M00 A304 RMK A01 T00721001  RH  060%=      5-min Rain = 0
KCR2 091802Z 05006KT 07/M00 A304 RMK A01 T00701002  RH  060%=      5-min Rain = 0
KCR2 091803Z 05004KT 07/00 A304 RMK A01 T006900-0  RH  061%=      5-min Rain = 0
KCR2 091804Z 06005KT 07/00 A304 RMK A01 T00700001  RH  061%=      5-min Rain = 0
KCR2 091805Z 05003KT 07/M00 A304 RMK A01 T00701001  RH  060%=      5-min Rain = 0
KCR2 091806Z 02003KT 07/M00 A304 RMK A01 T00701002  RH  060%=      5-min Rain = 0
KCR2 091807Z 03006KT 07/00 A3039 RMK A01 T00710003  RH  062%=      5-min Rain = 0
KCR2 091808Z 05006KT 07/00 A3039 RMK A01 T00720002  RH  061%=      5-min Rain = 0
KCR2 091809Z 06004KT 07/00 A3039 RMK A01 T00720002  RH  061%=      5-min Rain = 0
KCR2 091810Z 05006KT 07/00 A3039 RMK A01 T00720003  RH  061%=      5-min Rain = 0
KCR2 091811Z 04005KT 07/00 A3039 RMK A01 T00730002  RH  061%=      5-min Rain = 0
KCR2 091812Z 05004KT 07/00 A3039 RMK A01 T007300-0  RH  060%=      5-min Rain = 0
KCR2 091813Z 07003KT 07/00 A3039 RMK A01 T00730000  RH  060%=      5-min Rain = 0
KCR2 091814Z 10002KT 07/M00 A3039 RMK A01 T00721004  RH  059%=      5-min Rain = 0
KCR2 091815Z 10003KT 07/M00 A3039 RMK A01 T00721003  RH  059%=      5-min Rain = 0
KCR2 091816Z 09006KT 07/M00 A3039 RMK A01 T00731001  RH  060%=      5-min Rain = 0
KCR2 091817Z 07009KT 07/00 A3039 RMK A01 T00730003  RH  061%=      5-min Rain = 0
KCR2 091818Z 07006KT 07/00 A3039 RMK A01 T007300-0  RH  060%=      5-min Rain = 0
KCR2 091819Z 06004KT 07/00 A3039 RMK A01 T007200-0  RH  060%=      5-min Rain = 0
KCR2 091820Z 05003KT 07/M00 A3039 RMK A01 T00721003  RH  059%=      5-min Rain = 0
KCR2 091821Z 06006KT 07/M00 A3039 RMK A01 T00721001  RH  060%=      5-min Rain = 0
KCR2 091822Z 06006KT 07/00 A3039 RMK A01 T00730002  RH  061%=      5-min Rain = 0
KCR2 091823Z 06005KT 07/M00 A3039 RMK A01 T00731003  RH  058%=      5-min Rain = 0
KCR2 091824Z 07006KT 07/M00 A3039 RMK A01 T00731002  RH  059%=      5-min Rain = 0
KCR2 091825Z 06006KT 07/00 A3039 RMK A01 T00730001  RH  060%=      5-min Rain = 0
KCR2 091826Z 05005KT 07/00 A3039 RMK A01 T00740001  RH  060%=      5-min Rain = 0
KCR2 091827Z 05004KT 07/M00 A3039 RMK A01 T00741003  RH  058%=      5-min Rain = 0
KCR2 091828Z 08004KT 07/M00 A3039 RMK A01 T00741003  RH  058%=      5-min Rain = 0
KCR2 091829Z 07005KT 07/M00 A3038 RMK A01 T00741004  RH  058%=      5-min Rain = 0
KCR2 091830Z 08004KT 07/M00 A3038 RMK A01 T00731003  RH  058%=      5-min Rain = 0
KCR2 091831Z 07003KT 07/M00 A3038 RMK A01 T00741004  RH  058%=      5-min Rain = 0
KCR2 091832Z 07003KT 07/M00 A3038 RMK A01 T00741003  RH  058%=      5-min Rain = 0
KCR2 091833Z 06005KT 08/00 A3038 RMK A01 T00750000  RH  059%=      5-min Rain = 0
KCR2 091834Z 08006KT 08/00 A3038 RMK A01 T00760002  RH  059%=      5-min Rain = 0
KCR2 091835Z 06006KT 08/01 A3038 RMK A01 T00790009  RH  061%=      5-min Rain = 0
KCR2 091836Z 06005KT 08/00 A3038 RMK A01 T00800001  RH  058%=      5-min Rain = 0
KCR2 091837Z 05004KT 08/01 A3038 RMK A01 T00800009  RH  061%=      5-min Rain = 0
KCR2 091838Z 06005KT 08/01 A3038 RMK A01 T00820005  RH  058%=      5-min Rain = 0
KCR2 091839Z 07004KT 08/00 A3038 RMK A01 T00810001  RH  057%=      5-min Rain = 0
KCR2 091840Z 06008KT 08/01 A3037 RMK A01 T00810006  RH  059%=      5-min Rain = 0
KCR2 091841Z 06008KT 08/00 A3037 RMK A01 T00810002  RH  057%=      5-min Rain = 0
KCR2 091842Z 05006KT 08/00 A3037 RMK A01 T00800000  RH  057%=      5-min Rain = 0
KCR2 091843Z 06005KT 08/M00 A3037 RMK A01 T00781002  RH  057%=      5-min Rain = 0
KCR2 091844Z 05003KT 08/M00 A3037 RMK A01 T00771002  RH  057%=      5-min Rain = 0
KCR2 091845Z 07001KT 08/00 A3037 RMK A01 T00780002  RH  058%=      5-min Rain = 0
KCR2 091846Z 01003KT 08/00 A3037 RMK A01 T00800003  RH  058%=      5-min Rain = 0
KCR2 091847Z 05004KT 08/M00 A3037 RMK A01 T00811001  RH  056%=      5-min Rain = 0
KCR2 091848Z 03006KT 08/00 A3037 RMK A01 T00820002  RH  057%=      5-min Rain = 0
KCR2 091849Z 02006KT 08/M00 A3037 RMK A01 T00831002  RH  055%=      5-min Rain = 0
KCR2 091850Z 04005KT 08/M00 A3037 RMK A01 T00811003  RH  055%=      5-min Rain = 0
KCR2 091851Z 05007KT 08/00 A3037 RMK A01 T00820003  RH  057%=      5-min Rain = 0
KCR2 091852Z 05005KT 08/M01 A3037 RMK A01 T00821005  RH  054%=      5-min Rain = 0
KCR2 091853Z 03005KT 08/M00 A3037 RMK A01 T00811003  RH  055%=      5-min Rain = 0
KCR2 091854Z 01006KT 08/00 A3037 RMK A01 T00810001  RH  057%=      5-min Rain = 0
KCR2 091855Z 33004KT 08/M00 A3037 RMK A01 T00831002  RH  055%=      5-min Rain = 0
KCR2 091856Z 34002KT 08/M01 A3037 RMK A01 T00821007  RH  054%=      5-min Rain = 0
KCR2 091857Z 00002KT 08/M00 A3037 RMK A01 T00811002  RH  056%=      5-min Rain = 0
KCR2 091858Z 03005KT 08/00 A3037 RMK A01 T008200-0  RH  056%=      5-min Rain = 0
KCR2 091859Z 02005KT 08/00 A3036 RMK A01 T008300-0  RH  056%=      5-min Rain = 0
KCR2 091900Z 04005KT 08/00 A3036 RMK A01 T00820000  RH  056%=      5-min Rain = 0
KCR2 091901Z 03007KT 08/00 A3036 RMK A01 T00820002  RH  057%=      5-min Rain = 0
KCR2 091902Z 03004KT 08/00 A3036 RMK A01 T00820000  RH  056%=      5-min Rain = 0
KCR2 091903Z 02005KT 08/M00 A3036 RMK A01 T00811001  RH  056%=      5-min Rain = 0
KCR2 091904Z 03006KT 08/00 A3036 RMK A01 T00800001  RH  057%=      5-min Rain = 0
KCR2 091905Z 03006KT 08/00 A3036 RMK A01 T00820003  RH  058%=      5-min Rain = 0
KCR2 091906Z 03007KT 08/00 A3036 RMK A01 T00820002  RH  057%=      5-min Rain = 0
KCR2 091907Z 03007KT 08/00 A3036 RMK A01 T00820002  RH  057%=      5-min Rain = 0
KCR2 091908Z 02005KT 08/M00 A3036 RMK A01 T00811002  RH  056%=      5-min Rain = 0
KCR2 091909Z 03005KT 08/M00 A3036 RMK A01 T00791001  RH  057%=      5-min Rain = 0
KCR2 091910Z 04007KT 08/00 A3036 RMK A01 T00800004  RH  059%=      5-min Rain = 0
KCR2 091911Z 04006KT 08/00 A3036 RMK A01 T00810001  RH  057%=      5-min Rain = 0
KCR2 091912Z 05006KT 08/M00 A3036 RMK A01 T00791001  RH  057%=      5-min Rain = 0
KCR2 091913Z 05007KT 08/00 A3036 RMK A01 T00790001  RH  058%=      5-min Rain = 0
KCR2 091914Z 05005KT 08/00 A3036 RMK A01 T00790003  RH  059%=      5-min Rain = 0
KCR2 091915Z 06004KT 08/01 A3036 RMK A01 T00810008  RH  060%=      5-min Rain = 0
KCR2 091916Z 04004KT 08/01 A3036 RMK A01 T00820007  RH  059%=      5-min Rain = 0
KCR2 091917Z 03004KT 08/00 A3036 RMK A01 T00830000  RH  056%=      5-min Rain = 0
KCR2 091918Z 01005KT 08/00 A3036 RMK A01 T008200-0  RH  056%=      5-min Rain = 0
KCR2 091919Z 01002KT 08/00 A3036 RMK A01 T00820002  RH  057%=      5-min Rain = 0
KCR2 091920Z 03003KT 08/00 A3036 RMK A01 T00830002  RH  057%=      5-min Rain = 0
KCR2 091921Z 03004KT 08/M00 A3036 RMK A01 T00831002  RH  055%=      5-min Rain = 0
KCR2 091922Z 04006KT 08/00 A3036 RMK A01 T00830003  RH  057%=      5-min Rain = 0
KCR2 091923Z 04005KT 08/00 A3036 RMK A01 T008200-0  RH  056%=      5-min Rain = 0
KCR2 091924Z 05005KT 08/M00 A3036 RMK A01 T00811001  RH  056%=      5-min Rain = 0
KCR2 091925Z 05003KT 08/M00 A3036 RMK A01 T00791004  RH  056%=      5-min Rain = 0
KCR2 091926Z 05004KT 08/M00 A3036 RMK A01 T00791002  RH  057%=      5-min Rain = 0
KCR2 091927Z 06004KT 08/00 A3036 RMK A01 T007900-0  RH  057%=      5-min Rain = 0
KCR2 091928Z 04004KT 08/00 A3036 RMK A01 T00790002  RH  058%=      5-min Rain = 0
KCR2 091929Z 02002KT 08/M00 A3036 RMK A01 T00791002  RH  056%=      5-min Rain = 0
KCR2 091930Z 36003KT 08/M00 A3036 RMK A01 T00791004  RH  056%=      5-min Rain = 0
KCR2 091931Z 04003KT 08/00 A3036 RMK A01 T00790000  RH  058%=      5-min Rain = 0
KCR2 091932Z 05001KT 08/M00 A3036 RMK A01 T00801001  RH  057%=      5-min Rain = 0
KCR2 091933Z 06002KT 08/M00 A3036 RMK A01 T00801003  RH  056%=      5-min Rain = 0
KCR2 091934Z 07002KT 08/M01 A3036 RMK A01 T00801005  RH  055%=      5-min Rain = 0
KCR2 091935Z 04003KT 08/M00 A3036 RMK A01 T00801003  RH  056%=      5-min Rain = 0
KCR2 091936Z 03003KT 08/00 A3036 RMK A01 T00800002  RH  058%=      5-min Rain = 0
KCR2 091937Z 08004KT 08/01 A3036 RMK A01 T00820007  RH  059%=      5-min Rain = 0
KCR2 091938Z 08005KT 08/01 A3036 RMK A01 T00830006  RH  058%=      5-min Rain = 0
KCR2 091939Z 06004KT 08/00 A3036 RMK A01 T00830001  RH  056%=      5-min Rain = 0
KCR2 091940Z 06004KT 08/00 A3035 RMK A01 T008200-0  RH  056%=      5-min Rain = 0
KCR2 091941Z 06003KT 08/M00 A3035 RMK A01 T00811001  RH  056%=      5-min Rain = 0
KCR2 091942Z 05002KT 08/M00 A3035 RMK A01 T00801002  RH  056%=      5-min Rain = 0
KCR2 091943Z 06002KT 08/M00 A3035 RMK A01 T00801003  RH  056%=      5-min Rain = 0
KCR2 091944Z 03002KT 08/00 A3035 RMK A01 T00800003  RH  058%=      5-min Rain = 0
KCR2 091945Z 01004KT 08/01 A3035 RMK A01 T00820005  RH  058%=      5-min Rain = 0
KCR2 091946Z 00004KT 08/00 A3035 RMK A01 T00830003  RH  057%=      5-min Rain = 0
KCR2 091947Z 34003KT 08/M00 A3035 RMK A01 T00831002  RH  055%=      5-min Rain = 0
KCR2 091948Z 36003KT 08/00 A3035 RMK A01 T00830001  RH  056%=      5-min Rain = 0
KCR2 091949Z 03003KT 08/00 A3035 RMK A01 T00830001  RH  056%=      5-min Rain = 0
KCR2 091950Z 08004KT 08/00 A3035 RMK A01 T00830000  RH  056%=      5-min Rain = 0
KCR2 091951Z 07005KT 08/01 A3035 RMK A01 T00830007  RH  059%=      5-min Rain = 0
KCR2 091952Z 05005KT 08/00 A3035 RMK A01 T00840002  RH  056%=      5-min Rain = 0
KCR2 091953Z 05006KT 08/00 A3035 RMK A01 T00830002  RH  057%=      5-min Rain = 0
KCR2 091954Z 05006KT 08/00 A3035 RMK A01 T00830002  RH  057%=      5-min Rain = 0
KCR2 091955Z 05005KT 08/00 A3035 RMK A01 T008200-0  RH  056%=      5-min Rain = 0
KCR2 091956Z 06005KT 08/M00 A3035 RMK A01 T00811004  RH  055%=      5-min Rain = 0
KCR2 091957Z 05004KT 08/M00 A3035 RMK A01 T00801001  RH  056%=      5-min Rain = 0
KCR2 091958Z 04003KT 08/M00 A3035 RMK A01 T00811003  RH  056%=      5-min Rain = 0
KCR2 091959Z 05003KT 08/M00 A3035 RMK A01 T00811001  RH  056%=      5-min Rain = 0
KCR2 092000Z 04003KT 08/M00 A3035 RMK A01 T00811003  RH  055%=      5-min Rain = 0
KCR2 092001Z 08003KT 08/M00 A3035 RMK A01 T00811002  RH  056%=      5-min Rain = 0
KCR2 092002Z 11002KT 08/M00 A3035 RMK A01 T00811002  RH  056%=      5-min Rain = 0
KCR2 092003Z 06003KT 08/00 A3035 RMK A01 T00820000  RH  056%=      5-min Rain = 0
KCR2 092004Z 04004KT 08/M00 A3035 RMK A01 T00831003  RH  055%=      5-min Rain = 0
KCR2 092005Z 02006KT 08/00 A3035 RMK A01 T00840002  RH  056%=      5-min Rain = 0
KCR2 092006Z 02006KT 09/00 A3035 RMK A01 T00850001  RH  056%=      5-min Rain = 0
KCR2 092007Z 01005KT 09/M00 A3035 RMK A01 T00851002  RH  054%=      5-min Rain = 0
KCR2 092008Z 01005KT 08/M00 A3035 RMK A01 T00841002  RH  055%=      5-min Rain = 0
KCR2 092009Z 02004KT 08/M00 A3035 RMK A01 T00841001  RH  055%=      5-min Rain = 0
KCR2 092010Z 05003KT 09/00 A3035 RMK A01 T00860002  RH  056%=      5-min Rain = 0
KCR2 092011Z 05004KT 09/00 A3035 RMK A01 T008600-0  RH  054%=      5-min Rain = 0
KCR2 092012Z 08003KT 09/M00 A3035 RMK A01 T00861002  RH  054%=      5-min Rain = 0
KCR2 092013Z 12001KT 09/M00 A3035 RMK A01 T00871002  RH  054%=      5-min Rain = 0
KCR2 092014Z 08002KT 09/M00 A3035 RMK A01 T00871004  RH  053%=      5-min Rain = 0
KCR2 092015Z 05003KT 09/00 A3035 RMK A01 T00890000  RH  054%=      5-min Rain = 0
KCR2 092016Z 04003KT 09/01 A3035 RMK A01 T00920007  RH  056%=      5-min Rain = 0
KCR2 092017Z 04003KT 09/00 A3035 RMK A01 T00930003  RH  053%=      5-min Rain = 0
KCR2 092018Z 05005KT 09/01 A3035 RMK A01 T00930006  RH  054%=      5-min Rain = 0
KCR2 092019Z 04004KT 09/01 A3035 RMK A01 T00930012  RH  057%=      5-min Rain = 0
KCR2 092020Z 02007KT 10/01 A3034 RMK A01 T00950009  RH  055%=      5-min Rain = 0
KCR2 092021Z 02005KT 09/00 A3035 RMK A01 T00940004  RH  053%=      5-min Rain = 0
KCR2 092022Z 02005KT 09/00 A3035 RMK A01 T00920003  RH  054%=      5-min Rain = 0
KCR2 092023Z 03005KT 09/00 A3035 RMK A01 T00910004  RH  055%=      5-min Rain = 0
KCR2 092024Z 01005KT 09/00 A3035 RMK A01 T00910003  RH  054%=      5-min Rain = 0
KCR2 092025Z 02001KT 09/M00 A3035 RMK A01 T00901003  RH  052%=      5-min Rain = 0
KCR2 092026Z 03004KT 09/00 A3034 RMK A01 T00890004  RH  055%=      5-min Rain = 0
KCR2 092027Z 35005KT 09/01 A3034 RMK A01 T00900005  RH  055%=      5-min Rain = 0
KCR2 092028Z 35006KT 09/00 A3034 RMK A01 T00890002  RH  054%=      5-min Rain = 0
KCR2 092029Z 01005KT 09/01 A3034 RMK A01 T00880006  RH  056%=      5-min Rain = 0
KCR2 092030Z 36005KT 09/00 A3034 RMK A01 T00880004  RH  056%=      5-min Rain = 0
KCR2 092031Z 35004KT 09/00 A3034 RMK A01 T00860001  RH  055%=      5-min Rain = 0
KCR2 092032Z 35005KT 09/00 A3034 RMK A01 T00850001  RH  055%=      5-min Rain = 0
KCR2 092033Z 35005KT 09/00 A3034 RMK A01 T00870003  RH  056%=      5-min Rain = 0
KCR2 092034Z 00003KT 09/M00 A3034 RMK A01 T00871001  RH  054%=      5-min Rain = 0
KCR2 092035Z 01004KT 09/00 A3034 RMK A01 T00870000  RH  054%=      5-min Rain = 0
KCR2 092036Z 35004KT 09/00 A3034 RMK A01 T008700-0  RH  054%=      5-min Rain = 0
KCR2 092037Z 00003KT 09/M00 A3034 RMK A01 T00871001  RH  054%=      5-min Rain = 0
KCR2 092038Z 35005KT 09/00 A3034 RMK A01 T00860001  RH  055%=      5-min Rain = 0
KCR2 092039Z 34004KT 09/00 A3034 RMK A01 T00860001  RH  055%=      5-min Rain = 0
KCR2 092040Z 01003KT 08/M00 A3034 RMK A01 T00841001  RH  055%=      5-min Rain = 0
KCR2 092041Z 03005KT 08/00 A3034 RMK A01 T00840003  RH  057%=      5-min Rain = 0
KCR2 092042Z 03004KT 08/01 A3034 RMK A01 T00840005  RH  057%=      5-min Rain = 0
KCR2 092043Z 04003KT 09/01 A3034 RMK A01 T00850006  RH  058%=      5-min Rain = 0
KCR2 092044Z 05002KT 09/00 A3034 RMK A01 T00850002  RH  056%=      5-min Rain = 0
KCR2 092045Z 05004KT 09/00 A3034 RMK A01 T00850004  RH  057%=      5-min Rain = 0
KCR2 092046Z 05003KT 09/00 A3034 RMK A01 T00850004  RH  057%=      5-min Rain = 0
KCR2 092047Z 05002KT 09/01 A3034 RMK A01 T00850007  RH  058%=      5-min Rain = 0
KCR2 092048Z 07004KT 09/01 A3034 RMK A01 T00870007  RH  057%=      5-min Rain = 0
KCR2 092049Z 06004KT 09/00 A3034 RMK A01 T00870004  RH  056%=      5-min Rain = 0
KCR2 092050Z 03002KT 09/00 A3034 RMK A01 T00870002  RH  055%=      5-min Rain = 0
KCR2 092051Z 18000KT 09/00 A3034 RMK A01 T00870001  RH  055%=      5-min Rain = 0
KCR2 092052Z 03001KT 09/00 A3034 RMK A01 T00890003  RH  055%=      5-min Rain = 0
KCR2 092053Z 02004KT 09/01 A3034 RMK A01 T00900006  RH  055%=      5-min Rain = 0
KCR2 092054Z 00002KT 09/00 A3034 RMK A01 T00910003  RH  054%=      5-min Rain = 0
KCR2 092055Z 01002KT 09/00 A3034 RMK A01 T00910000  RH  053%=      5-min Rain = 0
KCR2 092056Z 34002KT 09/00 A3034 RMK A01 T009000-0  RH  053%=      5-min Rain = 0
KCR2 092057Z 35001KT 09/00 A3034 RMK A01 T00900002  RH  054%=      5-min Rain = 0
KCR2 092058Z 05000KT 09/00 A3034 RMK A01 T00900002  RH  054%=      5-min Rain = 0
KCR2 092059Z 07001KT 09/00 A3034 RMK A01 T00920003  RH  054%=      5-min Rain = 0
KCR2 092100Z 08004KT 09/01 A3034 RMK A01 T00930005  RH  054%=      5-min Rain = 0
KCR2 092101Z 07005KT 09/01 A3034 RMK A01 T00930007  RH  055%=      5-min Rain = 0
KCR2 092102Z 06004KT 09/01 A3034 RMK A01 T00920007  RH  055%=      5-min Rain = 0
KCR2 092103Z 06005KT 09/01 A3034 RMK A01 T00910006  RH  055%=      5-min Rain = 0
KCR2 092104Z 07004KT 09/01 A3034 RMK A01 T00910006  RH  055%=      5-min Rain = 0
KCR2 092105Z 05003KT 09/01 A3034 RMK A01 T00900006  RH  056%=      5-min Rain = 0
KCR2 092106Z 04005KT 09/01 A3034 RMK A01 T00910008  RH  056%=      5-min Rain = 0
KCR2 092107Z 04004KT 09/01 A3034 RMK A01 T00910007  RH  056%=      5-min Rain = 0
KCR2 092108Z 05003KT 09/01 A3034 RMK A01 T00910005  RH  055%=      5-min Rain = 0
KCR2 092109Z 04004KT 09/01 A3034 RMK A01 T00900007  RH  056%=      5-min Rain = 0
KCR2 092110Z 03004KT 09/01 A3034 RMK A01 T00910009  RH  056%=      5-min Rain = 0
KCR2 092111Z 05004KT 09/01 A3034 RMK A01 T00920007  RH  055%=      5-min Rain = 0
KCR2 092112Z 05005KT 09/01 A3034 RMK A01 T00910005  RH  055%=      5-min Rain = 0
KCR2 092113Z 04004KT 09/01 A3034 RMK A01 T00910008  RH  056%=      5-min Rain = 0
KCR2 092114Z 04003KT 09/01 A3034 RMK A01 T00910005  RH  055%=      5-min Rain = 0
KCR2 092115Z 04001KT 09/00 A3034 RMK A01 T00910004  RH  054%=      5-min Rain = 0
KCR2 092116Z 00000KT 09/00 A3034 RMK A01 T00910001  RH  053%=      5-min Rain = 0
KCR2 092117Z 31000KT 09/00 A3034 RMK A01 T00920002  RH  053%=      5-min Rain = 0
KCR2 092118Z 32001KT 10/00 A3034 RMK A01 T00950003  RH  053%=      5-min Rain = 0
KCR2 092119Z 36000KT 10/00 A3034 RMK A01 T00960003  RH  052%=      5-min Rain = 0
KCR2 092120Z 04002KT 10/01 A3034 RMK A01 T00970005  RH  053%=      5-min Rain = 0
KCR2 092121Z 05004KT 10/01 A3034 RMK A01 T00980005  RH  053%=      5-min Rain = 0
KCR2 092122Z 05002KT 10/01 A3034 RMK A01 T00960007  RH  054%=      5-min Rain = 0
KCR2 092123Z 06002KT 10/01 A3034 RMK A01 T00950006  RH  054%=      5-min Rain = 0
KCR2 092124Z 07004KT 09/01 A3034 RMK A01 T00940007  RH  055%=      5-min Rain = 0
KCR2 092125Z 06005KT 09/01 A3034 RMK A01 T00940010  RH  056%=      5-min Rain = 0
KCR2 092126Z 08003KT 09/01 A3034 RMK A01 T00930007  RH  055%=      5-min Rain = 0
KCR2 092127Z 08002KT 09/01 A3034 RMK A01 T00930013  RH  057%=      5-min Rain = 0
KCR2 092128Z 06004KT 09/01 A3034 RMK A01 T00940014  RH  058%=      5-min Rain = 0
KCR2 092129Z 04003KT 09/01 A3034 RMK A01 T00940010  RH  056%=      5-min Rain = 0
KCR2 092130Z 03004KT 09/01 A3034 RMK A01 T00940008  RH  055%=      5-min Rain = 0
KCR2 092131Z 03003KT 09/01 A3034 RMK A01 T00940006  RH  054%=      5-min Rain = 0
KCR2 092132Z 01002KT 09/01 A3034 RMK A01 T00930006  RH  054%=      5-min Rain = 0
KCR2 092133Z 02002KT 09/01 A3034 RMK A01 T00930005  RH  054%=      5-min Rain = 0
KCR2 092134Z 05002KT 09/01 A3034 RMK A01 T00940006  RH  054%=      5-min Rain = 0
KCR2 092135Z 05002KT 09/01 A3034 RMK A01 T00930005  RH  054%=      5-min Rain = 0
KCR2 092136Z 08002KT 09/01 A3034 RMK A01 T00940009  RH  056%=      5-min Rain = 0
KCR2 092137Z 07004KT 09/01 A3034 RMK A01 T00940011  RH  056%=      5-min Rain = 0
KCR2 092138Z 06005KT 09/01 A3034 RMK A01 T00940010  RH  056%=      5-min Rain = 0
KCR2 092139Z 06003KT 09/01 A3034 RMK A01 T00940008  RH  055%=      5-min Rain = 0
KCR2 092140Z 07003KT 09/01 A3034 RMK A01 T00930012  RH  057%=      5-min Rain = 0
KCR2 092141Z 07003KT 09/01 A3034 RMK A01 T00940012  RH  056%=      5-min Rain = 0
KCR2 092142Z 07001KT 09/00 A3033 RMK A01 T00940004  RH  053%=      5-min Rain = 0
KCR2 092143Z 08003KT 09/01 A3034 RMK A01 T00940007  RH  054%=      5-min Rain = 0
KCR2 092144Z 05008KT 10/01 A3033 RMK A01 T00950012  RH  056%=      5-min Rain = 0
KCR2 092145Z 02006KT 10/01 A3033 RMK A01 T00950013  RH  056%=      5-min Rain = 0
KCR2 092146Z 00007KT 10/01 A3033 RMK A01 T00960009  RH  055%=      5-min Rain = 0
KCR2 092147Z 36005KT 10/01 A3034 RMK A01 T00950005  RH  054%=      5-min Rain = 0
KCR2 092148Z 02005KT 09/01 A3034 RMK A01 T00940007  RH  055%=      5-min Rain = 0
KCR2 092149Z 02003KT 09/01 A3034 RMK A01 T00940007  RH  055%=      5-min Rain = 0
KCR2 092150Z 33002KT 09/01 A3033 RMK A01 T00930006  RH  054%=      5-min Rain = 0
KCR2 092151Z 36001KT 09/01 A3033 RMK A01 T00930007  RH  055%=      5-min Rain = 0
KCR2 092152Z 00003KT 09/01 A3033 RMK A01 T00940010  RH  056%=      5-min Rain = 0
KCR2 092153Z 36002KT 10/01 A3033 RMK A01 T00950007  RH  054%=      5-min Rain = 0
KCR2 092154Z 01002KT 10/01 A3033 RMK A01 T00950005  RH  053%=      5-min Rain = 0
KCR2 092155Z 04003KT 10/01 A3033 RMK A01 T00950008  RH  055%=      5-min Rain = 0
KCR2 092156Z 05003KT 10/01 A3033 RMK A01 T00950009  RH  055%=      5-min Rain = 0
KCR2 092157Z 06004KT 10/01 A3033 RMK A01 T00950008  RH  055%=      5-min Rain = 0
KCR2 092158Z 08003KT 09/01 A3033 RMK A01 T00940006  RH  054%=      5-min Rain = 0
KCR2 092159Z 11002KT 09/01 A3033 RMK A01 T00930008  RH  055%=      5-min Rain = 0
KCR2 092200Z 10003KT 09/01 A3033 RMK A01 T00930012  RH  057%=      5-min Rain = 0
KCR2 092201Z 08004KT 09/01 A3033 RMK A01 T00940008  RH  055%=      5-min Rain = 0
KCR2 092202Z 07005KT 09/01 A3033 RMK A01 T00940007  RH  055%=      5-min Rain = 0
KCR2 092203Z 07004KT 09/01 A3033 RMK A01 T00930006  RH  054%=      5-min Rain = 0
KCR2 092204Z 06003KT 09/01 A3033 RMK A01 T00930008  RH  056%=      5-min Rain = 0
KCR2 092205Z 06002KT 09/01 A3033 RMK A01 T00930010  RH  056%=      5-min Rain = 0
KCR2 092206Z 07002KT 09/01 A3033 RMK A01 T00930009  RH  056%=      5-min Rain = 0
KCR2 092207Z 08002KT 09/01 A3033 RMK A01 T00930006  RH  054%=      5-min Rain = 0
KCR2 092208Z 05003KT 09/01 A3033 RMK A01 T00930009  RH  055%=      5-min Rain = 0
KCR2 092209Z 06004KT 09/01 A3033 RMK A01 T00940007  RH  055%=      5-min Rain = 0
KCR2 092210Z 07004KT 09/01 A3033 RMK A01 T00940008  RH  055%=      5-min Rain = 0
KCR2 092211Z 09004KT 09/01 A3033 RMK A01 T00930008  RH  055%=      5-min Rain = 0
KCR2 092212Z 05005KT 09/01 A3033 RMK A01 T00930011  RH  056%=      5-min Rain = 0
KCR2 092213Z 05004KT 09/01 A3033 RMK A01 T00930010  RH  056%=      5-min Rain = 0
KCR2 092214Z 06002KT 09/01 A3033 RMK A01 T00930011  RH  056%=      5-min Rain = 0
KCR2 092215Z 04001KT 09/01 A3033 RMK A01 T00940009  RH  055%=      5-min Rain = 0
KCR2 092216Z 08001KT 09/01 A3033 RMK A01 T00940011  RH  056%=      5-min Rain = 0
KCR2 092217Z 08001KT 09/01 A3033 RMK A01 T00940008  RH  055%=      5-min Rain = 0
KCR2 092218Z 05001KT 09/01 A3033 RMK A01 T00940009  RH  055%=      5-min Rain = 0
KCR2 092219Z 05002KT 10/01 A3033 RMK A01 T00950009  RH  055%=      5-min Rain = 0
KCR2 092220Z 07003KT 10/01 A3033 RMK A01 T00950011  RH  056%=      5-min Rain = 0
KCR2 092221Z 07004KT 10/02 A3033 RMK A01 T00950015  RH  057%=      5-min Rain = 0
KCR2 092222Z 08005KT 10/02 A3033 RMK A01 T00960017  RH  058%=      5-min Rain = 0
KCR2 092223Z 07005KT 10/02 A3033 RMK A01 T00960019  RH  059%=      5-min Rain = 0
KCR2 092224Z 06005KT 10/01 A3033 RMK A01 T00960014  RH  057%=      5-min Rain = 0
KCR2 092225Z 04004KT 10/01 A3033 RMK A01 T00950014  RH  057%=      5-min Rain = 0
KCR2 092226Z 04004KT 10/01 A3033 RMK A01 T00950013  RH  056%=      5-min Rain = 0
KCR2 092227Z 04003KT 10/01 A3033 RMK A01 T00950012  RH  056%=      5-min Rain = 0
KCR2 092228Z 06003KT 10/01 A3033 RMK A01 T00950014  RH  057%=      5-min Rain = 0
KCR2 092229Z 06003KT 10/01 A3033 RMK A01 T00950013  RH  057%=      5-min Rain = 0
KCR2 092230Z 05003KT 10/01 A3033 RMK A01 T00950012  RH  056%=      5-min Rain = 0
KCR2 092231Z 07004KT 10/01 A3033 RMK A01 T00950014  RH  057%=      5-min Rain = 0
KCR2 092232Z 04005KT 10/02 A3033 RMK A01 T00950016  RH  058%=      5-min Rain = 0
KCR2 092233Z 04004KT 10/02 A3033 RMK A01 T00950018  RH  058%=      5-min Rain = 0
KCR2 092234Z 05004KT 10/01 A3033 RMK A01 T00960012  RH  056%=      5-min Rain = 0
KCR2 092235Z 05004KT 10/01 A3033 RMK A01 T00960014  RH  057%=      5-min Rain = 0
KCR2 092236Z 05004KT 10/02 A3033 RMK A01 T00960015  RH  057%=      5-min Rain = 0
KCR2 092237Z 03005KT 10/02 A3033 RMK A01 T00950016  RH  058%=      5-min Rain = 0
KCR2 092238Z 02004KT 10/02 A3033 RMK A01 T00960015  RH  057%=      5-min Rain = 0
KCR2 092239Z 03004KT 10/02 A3033 RMK A01 T00960016  RH  058%=      5-min Rain = 0
KCR2 092240Z 05004KT 10/02 A3033 RMK A01 T00960017  RH  058%=      5-min Rain = 0
KCR2 092241Z 04005KT 10/02 A3033 RMK A01 T00950020  RH  059%=      5-min Rain = 0
KCR2 092242Z 03007KT 10/02 A3033 RMK A01 T00960017  RH  058%=      5-min Rain = 0
KCR2 092243Z 02005KT 10/01 A3033 RMK A01 T00960014  RH  057%=      5-min Rain = 0
KCR2 092244Z 04005KT 10/02 A3033 RMK A01 T00950015  RH  057%=      5-min Rain = 0
KCR2 092245Z 03005KT 10/02 A3033 RMK A01 T00950018  RH  059%=      5-min Rain = 0
KCR2 092246Z 02006KT 10/02 A3033 RMK A01 T00950017  RH  058%=      5-min Rain = 0
KCR2 092247Z 02006KT 10/02 A3033 RMK A01 T00950017  RH  058%=      5-min Rain = 0
KCR2 092248Z 01005KT 10/02 A3033 RMK A01 T00950015  RH  058%=      5-min Rain = 0
KCR2 092249Z 02004KT 09/01 A3033 RMK A01 T00940013  RH  057%=      5-min Rain = 0
KCR2 092250Z 03003KT 09/02 A3033 RMK A01 T00940018  RH  059%=      5-min Rain = 0
KCR2 092251Z 05004KT 09/02 A3033 RMK A01 T00940018  RH  059%=      5-min Rain = 0
KCR2 092252Z 05004KT 09/02 A3033 RMK A01 T00940015  RH  057%=      5-min Rain = 0
KCR2 092253Z 05003KT 09/02 A3033 RMK A01 T00940016  RH  058%=      5-min Rain = 0
KCR2 092254Z 05004KT 09/01 A3033 RMK A01 T00940014  RH  058%=      5-min Rain = 0
KCR2 092255Z 05003KT 09/01 A3033 RMK A01 T00940014  RH  057%=      5-min Rain = 0
KCR2 092256Z 05004KT 09/02 A3033 RMK A01 T00940016  RH  058%=      5-min Rain = 0
KCR2 092257Z 06004KT 09/02 A3033 RMK A01 T00940018  RH  059%=      5-min Rain = 0
KCR2 092258Z 06003KT 09/02 A3033 RMK A01 T00930018  RH  059%=      5-min Rain = 0
KCR2 092259Z 04004KT 09/02 A3033 RMK A01 T00930016  RH  058%=      5-min Rain = 0
KCR2 092300Z 03004KT 09/02 A3034 RMK A01 T00930016  RH  059%=      5-min Rain = 0
KCR2 092301Z 03005KT 09/02 A3034 RMK A01 T00940015  RH  058%=      5-min Rain = 0
KCR2 092302Z 03005KT 09/02 A3034 RMK A01 T00930016  RH  059%=      5-min Rain = 0
KCR2 092303Z 04005KT 09/02 A3034 RMK A01 T00930017  RH  059%=      5-min Rain = 0
KCR2 092304Z 02005KT 09/02 A3034 RMK A01 T00930018  RH  059%=      5-min Rain = 0
KCR2 092305Z 02005KT 09/02 A3034 RMK A01 T00930017  RH  059%=      5-min Rain = 0
KCR2 092306Z 01006KT 09/02 A3033 RMK A01 T00930017  RH  059%=      5-min Rain = 0
KCR2 092307Z 03005KT 09/02 A3034 RMK A01 T00930015  RH  058%=      5-min Rain = 0
KCR2 092308Z 02004KT 09/02 A3034 RMK A01 T00930015  RH  058%=      5-min Rain = 0
KCR2 092309Z 02004KT 09/02 A3034 RMK A01 T00930017  RH  059%=      5-min Rain = 0
KCR2 092310Z 02005KT 09/02 A3034 RMK A01 T00920017  RH  059%=      5-min Rain = 0
KCR2 092311Z 02005KT 09/02 A3033 RMK A01 T00920015  RH  058%=      5-min Rain = 0
KCR2 092312Z 02004KT 09/01 A3033 RMK A01 T00920014  RH  058%=      5-min Rain = 0
KCR2 092313Z 03005KT 09/02 A3033 RMK A01 T00920016  RH  059%=      5-min Rain = 0
KCR2 092314Z 03005KT 09/02 A3033 RMK A01 T00920016  RH  059%=      5-min Rain = 0
KCR2 092315Z 03005KT 09/02 A3033 RMK A01 T00920017  RH  060%=      5-min Rain = 0
KCR2 092316Z 03005KT 09/02 A3033 RMK A01 T00920016  RH  059%=      5-min Rain = 0
KCR2 092317Z 02005KT 09/02 A3033 RMK A01 T00920015  RH  059%=      5-min Rain = 0
KCR2 092318Z 02005KT 09/01 A3033 RMK A01 T00910014  RH  058%=      5-min Rain = 0
KCR2 092319Z 02004KT 09/02 A3033 RMK A01 T00910015  RH  059%=      5-min Rain = 0
KCR2 092320Z 02004KT 09/02 A3033 RMK A01 T00910017  RH  060%=      5-min Rain = 0
KCR2 092321Z 03003KT 09/02 A3033 RMK A01 T00900018  RH  060%=      5-min Rain = 0
KCR2 092322Z 03003KT 09/02 A3033 RMK A01 T00900019  RH  061%=      5-min Rain = 0
KCR2 092323Z 03003KT 09/02 A3034 RMK A01 T00890019  RH  061%=      5-min Rain = 0
KCR2 092324Z 03004KT 09/02 A3034 RMK A01 T00890018  RH  061%=      5-min Rain = 0
KCR2 092325Z 02004KT 09/02 A3034 RMK A01 T00890018  RH  061%=      5-min Rain = 0
KCR2 092326Z 02004KT 09/02 A3034 RMK A01 T00890019  RH  061%=      5-min Rain = 0
KCR2 092327Z 03003KT 09/02 A3034 RMK A01 T00890018  RH  061%=      5-min Rain = 0
KCR2 092328Z 03003KT 09/02 A3034 RMK A01 T00890019  RH  062%=      5-min Rain = 0
KCR2 092329Z 03003KT 09/02 A3034 RMK A01 T00880019  RH  062%=      5-min Rain = 0
KCR2 092330Z 03003KT 09/02 A3034 RMK A01 T00880019  RH  062%=      5-min Rain = 0
KCR2 092331Z 03003KT 09/02 A3034 RMK A01 T00880020  RH  063%=      5-min Rain = 0
KCR2 092332Z 03004KT 09/02 A3034 RMK A01 T00870020  RH  063%=      5-min Rain = 0
KCR2 092333Z 04004KT 09/02 A3034 RMK A01 T00870020  RH  063%=      5-min Rain = 0
KCR2 092334Z 04004KT 09/02 A3034 RMK A01 T00860019  RH  063%=      5-min Rain = 0
KCR2 092335Z 04004KT 09/02 A3034 RMK A01 T00860019  RH  063%=      5-min Rain = 0
KCR2 092336Z 05004KT 09/02 A3034 RMK A01 T00860020  RH  063%=      5-min Rain = 0
KCR2 092337Z 05004KT 09/02 A3034 RMK A01 T00850020  RH  063%=      5-min Rain = 0
KCR2 092338Z 04004KT 08/02 A3033 RMK A01 T00840021  RH  064%=      5-min Rain = 0
KCR2 092339Z 04004KT 08/02 A3033 RMK A01 T00830020  RH  064%=      5-min Rain = 0
KCR2 092340Z 04003KT 08/02 A3033 RMK A01 T00830019  RH  064%=      5-min Rain = 0
KCR2 092341Z 04004KT 08/02 A3033 RMK A01 T00830019  RH  064%=      5-min Rain = 0
KCR2 092342Z 04004KT 08/02 A3033 RMK A01 T00830018  RH  064%=      5-min Rain = 0
KCR2 092343Z 05004KT 08/02 A3033 RMK A01 T00830018  RH  064%=      5-min Rain = 0
KCR2 092344Z 05004KT 08/02 A3033 RMK A01 T00830018  RH  064%=      5-min Rain = 0
KCR2 092345Z 06004KT 08/02 A3033 RMK A01 T00820018  RH  064%=      5-min Rain = 0
KCR2 092346Z 06004KT 08/02 A3033 RMK A01 T00820018  RH  064%=      5-min Rain = 0
KCR2 092347Z 06004KT 08/02 A3033 RMK A01 T00820017  RH  064%=      5-min Rain = 0
KCR2 092348Z 06003KT 08/02 A3033 RMK A01 T00820017  RH  064%=      5-min Rain = 0
KCR2 092349Z 07003KT 08/02 A3033 RMK A01 T00820018  RH  064%=      5-min Rain = 0
KCR2 092350Z 07003KT 08/02 A3033 RMK A01 T00810020  RH  065%=      5-min Rain = 0
KCR2 092351Z 07003KT 08/02 A3033 RMK A01 T00810023  RH  067%=      5-min Rain = 0
KCR2 092352Z 07004KT 08/02 A3033 RMK A01 T00800023  RH  067%=      5-min Rain = 0
KCR2 092353Z 07004KT 08/02 A3033 RMK A01 T00790021  RH  067%=      5-min Rain = 0
KCR2 092354Z 07004KT 08/02 A3033 RMK A01 T00780022  RH  067%=      5-min Rain = 0
KCR2 092355Z 07004KT 08/02 A3034 RMK A01 T00770022  RH  068%=      5-min Rain = 0
KCR2 092356Z 07004KT 08/02 A3034 RMK A01 T00760021  RH  068%=      5-min Rain = 0
KCR2 092357Z 07004KT 08/02 A3034 RMK A01 T00760020  RH  068%=      5-min Rain = 0
KCR2 092358Z 07004KT 08/02 A3034 RMK A01 T00760021  RH  068%=      5-min Rain = 0
KCR2 092359Z 07004KT 08/02 A3034 RMK A01 T00750021  RH  069%=      5-min Rain = 0
KCR2 100000Z 06004KT 07/02 A3034 RMK A01 T00740022  RH  069%=      5-min Rain = 0
KCR2 100001Z 06004KT 07/02 A3034 RMK A01 T00730022  RH  070%=      5-min Rain = 0
KCR2 100002Z 06004KT 07/02 A3034 RMK A01 T00730021  RH  070%=      5-min Rain = 0
KCR2 100003Z 06004KT 07/02 A3034 RMK A01 T00720021  RH  070%=      5-min Rain = 0
KCR2 100004Z 06004KT 07/02 A3034 RMK A01 T00730022  RH  070%=      5-min Rain = 0
KCR2 100005Z 06004KT 07/02 A3034 RMK A01 T00730021  RH  070%=      5-min Rain = 0
KCR2 100006Z 06004KT 07/02 A3034 RMK A01 T00730022  RH  070%=      5-min Rain = 0
KCR2 100007Z 06004KT 07/02 A3034 RMK A01 T00720022  RH  070%=      5-min Rain = 0
KCR2 100008Z 06004KT 07/02 A3034 RMK A01 T00720022  RH  070%=      5-min Rain = 0
KCR2 100009Z 07004KT 07/02 A3034 RMK A01 T00720023  RH  071%=      5-min Rain = 0
KCR2 100010Z 07003KT 07/02 A3034 RMK A01 T00720023  RH  071%=      5-min Rain = 0
KCR2 100011Z 07003KT 07/02 A3034 RMK A01 T00710023  RH  071%=      5-min Rain = 0
KCR2 100012Z 07003KT 07/02 A3034 RMK A01 T00710023  RH  071%=      5-min Rain = 0
KCR2 100013Z 07003KT 07/02 A3034 RMK A01 T00710022  RH  071%=      5-min Rain = 0
KCR2 100014Z 07003KT 07/02 A3034 RMK A01 T00710022  RH  071%=      5-min Rain = 0
KCR2 100015Z 08003KT 07/02 A3034 RMK A01 T00710021  RH  070%=      5-min Rain = 0
KCR2 100016Z 09004KT 07/02 A3034 RMK A01 T00710020  RH  070%=      5-min Rain = 0
KCR2 100017Z 08004KT 07/02 A3034 RMK A01 T00710019  RH  070%=      5-min Rain = 0
KCR2 100018Z 08004KT 07/02 A3034 RMK A01 T00700020  RH  070%=      5-min Rain = 0
KCR2 100019Z 08004KT 07/02 A3034 RMK A01 T00700020  RH  071%=      5-min Rain = 0
KCR2 100020Z 08004KT 07/02 A3034 RMK A01 T00690021  RH  071%=      5-min Rain = 0
KCR2 100021Z 08004KT 07/02 A3034 RMK A01 T00680020  RH  072%=      5-min Rain = 0
KCR2 100022Z 08004KT 07/02 A3034 RMK A01 T00670021  RH  072%=      5-min Rain = 0
KCR2 100023Z 08004KT 07/02 A3034 RMK A01 T00660021  RH  073%=      5-min Rain = 0
KCR2 100024Z 08003KT 07/02 A3034 RMK A01 T00650021  RH  074%=      5-min Rain = 0
KCR2 100025Z 09003KT 06/02 A3034 RMK A01 T00640023  RH  075%=      5-min Rain = 0
KCR2 100026Z 09003KT 06/02 A3034 RMK A01 T00630022  RH  075%=      5-min Rain = 0
KCR2 100027Z 08004KT 06/02 A3034 RMK A01 T00620021  RH  075%=      5-min Rain = 0
KCR2 100028Z 08004KT 06/02 A3034 RMK A01 T00620021  RH  075%=      5-min Rain = 0
KCR2 100029Z 08004KT 06/02 A3034 RMK A01 T00620021  RH  075%=      5-min Rain = 0
KCR2 100030Z 08004KT 06/02 A3034 RMK A01 T00620022  RH  076%=      5-min Rain = 0
KCR2 100031Z 08004KT 06/02 A3034 RMK A01 T00610022  RH  076%=      5-min Rain = 0
KCR2 100032Z 08004KT 06/02 A3034 RMK A01 T00610022  RH  076%=      5-min Rain = 0
KCR2 100033Z 09004KT 06/02 A3034 RMK A01 T00600022  RH  076%=      5-min Rain = 0
KCR2 100034Z 09004KT 06/02 A3034 RMK A01 T00600022  RH  077%=      5-min Rain = 0
KCR2 100035Z 09004KT 06/02 A3034 RMK A01 T00590021  RH  077%=      5-min Rain = 0
KCR2 100036Z 09004KT 06/02 A3034 RMK A01 T00590022  RH  077%=      5-min Rain = 0
KCR2 100037Z 09005KT 06/02 A3034 RMK A01 T00590021  RH  077%=      5-min Rain = 0
KCR2 100038Z 09004KT 06/02 A3034 RMK A01 T00580022  RH  077%=      5-min Rain = 0
KCR2 100039Z 09004KT 06/02 A3034 RMK A01 T00580022  RH  077%=      5-min Rain = 0
KCR2 100040Z 09004KT 06/02 A3034 RMK A01 T00580022  RH  077%=      5-min Rain = 0
KCR2 100041Z 10004KT 06/02 A3034 RMK A01 T00580022  RH  078%=      5-min Rain = 0
KCR2 100042Z 10004KT 06/02 A3034 RMK A01 T00580023  RH  078%=      5-min Rain = 0
KCR2 100043Z 10004KT 06/02 A3034 RMK A01 T00570022  RH  079%=      5-min Rain = 0
KCR2 100044Z 10004KT 06/02 A3034 RMK A01 T00560023  RH  079%=      5-min Rain = 0
KCR2 100045Z 10004KT 06/02 A3034 RMK A01 T00560023  RH  079%=      5-min Rain = 0
KCR2 100046Z 10004KT 06/02 A3034 RMK A01 T00550023  RH  079%=      5-min Rain = 0
KCR2 100047Z 10004KT 06/02 A3034 RMK A01 T00550023  RH  080%=      5-min Rain = 0
KCR2 100048Z 10004KT 05/02 A3034 RMK A01 T00540023  RH  080%=      5-min Rain = 0
KCR2 100049Z 10004KT 05/02 A3034 RMK A01 T00540022  RH  080%=      5-min Rain = 0
KCR2 100050Z 10004KT 05/02 A3034 RMK A01 T00540023  RH  080%=      5-min Rain = 0
KCR2 100051Z 10004KT 05/02 A3034 RMK A01 T00530022  RH  081%=      5-min Rain = 0
KCR2 100052Z 10004KT 05/02 A3034 RMK A01 T00520022  RH  081%=      5-min Rain = 0
KCR2 100053Z 10004KT 05/02 A3035 RMK A01 T00520022  RH  081%=      5-min Rain = 0
KCR2 100054Z 10004KT 05/02 A3035 RMK A01 T00520022  RH  081%=      5-min Rain = 0
KCR2 100055Z 10004KT 05/02 A3035 RMK A01 T00510023  RH  082%=      5-min Rain = 0
KCR2 100056Z 10004KT 05/02 A3035 RMK A01 T00510022  RH  082%=      5-min Rain = 0
KCR2 100057Z 10004KT 05/02 A3035 RMK A01 T00510021  RH  081%=      5-min Rain = 0
KCR2 100058Z 10004KT 05/02 A3035 RMK A01 T00510021  RH  081%=      5-min Rain = 0
KCR2 100059Z 10005KT 05/02 A3035 RMK A01 T00510021  RH  081%=      5-min Rain = 0
KCR2 100100Z 10005KT 05/02 A3035 RMK A01 T00510021  RH  081%=      5-min Rain = 0
KCR2 100101Z 10005KT 05/02 A3035 RMK A01 T00510021  RH  081%=      5-min Rain = 0
KCR2 100102Z 10005KT 05/02 A3035 RMK A01 T00510022  RH  081%=      5-min Rain = 0
KCR2 100103Z 10005KT 05/02 A3035 RMK A01 T00510022  RH  081%=      5-min Rain = 0
KCR2 100104Z 10005KT 05/02 A3035 RMK A01 T00510022  RH  082%=      5-min Rain = 0
KCR2 100105Z 10005KT 05/02 A3035 RMK A01 T00510022  RH  082%=      5-min Rain = 0
KCR2 100106Z 10005KT 05/02 A3035 RMK A01 T00500022  RH  082%=      5-min Rain = 0
KCR2 100107Z 11005KT 05/02 A3035 RMK A01 T00500022  RH  082%=      5-min Rain = 0
KCR2 100108Z 11005KT 05/02 A3035 RMK A01 T00500022  RH  082%=      5-min Rain = 0
KCR2 100109Z 11005KT 05/02 A3035 RMK A01 T00500022  RH  083%=      5-min Rain = 0
KCR2 100110Z 11006KT 05/02 A3035 RMK A01 T00490023  RH  083%=      5-min Rain = 0
KCR2 100111Z 11005KT 05/02 A3035 RMK A01 T00490023  RH  083%=      5-min Rain = 0
KCR2 100112Z 11005KT 05/02 A3035 RMK A01 T00480023  RH  084%=      5-min Rain = 0
KCR2 100113Z 11005KT 05/02 A3035 RMK A01 T00480023  RH  084%=      5-min Rain = 0
KCR2 100114Z 11005KT 05/02 A3035 RMK A01 T00480023  RH  084%=      5-min Rain = 0
KCR2 100115Z 11005KT 05/02 A3035 RMK A01 T00480023  RH  084%=      5-min Rain = 0
KCR2 100116Z 11006KT 05/02 A3035 RMK A01 T00470023  RH  084%=      5-min Rain = 0
KCR2 100117Z 11006KT 05/02 A3035 RMK A01 T00480023  RH  084%=      5-min Rain = 0
KCR2 100118Z 11005KT 05/02 A3035 RMK A01 T00470023  RH  084%=      5-min Rain = 0
KCR2 100119Z 11005KT 05/02 A3035 RMK A01 T00460022  RH  084%=      5-min Rain = 0
KCR2 100120Z 11005KT 05/02 A3035 RMK A01 T00470022  RH  084%=      5-min Rain = 0
KCR2 100121Z 11005KT 05/02 A3035 RMK A01 T00460022  RH  084%=      5-min Rain = 0
KCR2 100122Z 11005KT 05/02 A3035 RMK A01 T00460022  RH  084%=      5-min Rain = 0
KCR2 100123Z 11005KT 05/02 A3035 RMK A01 T00460021  RH  084%=      5-min Rain = 0
KCR2 100124Z 11005KT 05/02 A3035 RMK A01 T00450021  RH  084%=      5-min Rain = 0
KCR2 100125Z 11005KT 05/02 A3035 RMK A01 T00450021  RH  084%=      5-min Rain = 0
KCR2 100126Z 11005KT 05/02 A3035 RMK A01 T00450021  RH  084%=      5-min Rain = 0
KCR2 100127Z 12005KT 05/02 A3035 RMK A01 T00450021  RH  085%=      5-min Rain = 0
KCR2 100128Z 12005KT 05/02 A3035 RMK A01 T00450021  RH  085%=      5-min Rain = 0
KCR2 100129Z 11006KT 05/02 A3036 RMK A01 T00450021  RH  085%=      5-min Rain = 0
KCR2 100130Z 11006KT 05/02 A3036 RMK A01 T00450021  RH  085%=      5-min Rain = 0
KCR2 100131Z 11006KT 04/02 A3036 RMK A01 T00440021  RH  085%=      5-min Rain = 0
KCR2 100132Z 11006KT 04/02 A3036 RMK A01 T00440021  RH  085%=      5-min Rain = 0
KCR2 100133Z 11006KT 05/02 A3036 RMK A01 T00450022  RH  085%=      5-min Rain = 0
KCR2 100134Z 11006KT 04/02 A3036 RMK A01 T00440021  RH  085%=      5-min Rain = 0
KCR2 100135Z 11006KT 04/02 A3036 RMK A01 T00440021  RH  085%=      5-min Rain = 0
KCR2 100136Z 11006KT 04/02 A3036 RMK A01 T00430021  RH  085%=      5-min Rain = 0
KCR2 100137Z 11006KT 04/02 A3036 RMK A01 T00430021  RH  085%=      5-min Rain = 0
KCR2 100138Z 11006KT 04/02 A3036 RMK A01 T00430021  RH  086%=      5-min Rain = 0
KCR2 100139Z 11006KT 04/02 A3036 RMK A01 T00420021  RH  086%=      5-min Rain = 0
KCR2 100140Z 12006KT 04/02 A3036 RMK A01 T00420021  RH  086%=      5-min Rain = 0
KCR2 100141Z 12006KT 04/02 A3036 RMK A01 T00430021  RH  086%=      5-min Rain = 0
KCR2 100142Z 12006KT 04/02 A3036 RMK A01 T00420021  RH  086%=      5-min Rain = 0
KCR2 100143Z 11006KT 04/02 A3036 RMK A01 T00430021  RH  086%=      5-min Rain = 0
KCR2 100144Z 11006KT 04/02 A3036 RMK A01 T00430021  RH  086%=      5-min Rain = 0
KCR2 100145Z 11006KT 04/02 A3036 RMK A01 T00430021  RH  086%=      5-min Rain = 0
KCR2 100146Z 11005KT 04/02 A3036 RMK A01 T00420021  RH  086%=      5-min Rain = 0
KCR2 100147Z 11005KT 04/02 A3036 RMK A01 T00420021  RH  086%=      5-min Rain = 0
KCR2 100148Z 11006KT 04/02 A3036 RMK A01 T00410020  RH  086%=      5-min Rain = 0
KCR2 100149Z 10005KT 04/02 A3036 RMK A01 T00410020  RH  086%=      5-min Rain = 0
KCR2 100150Z 10005KT 04/02 A3036 RMK A01 T00410020  RH  087%=      5-min Rain = 0
KCR2 100151Z 11005KT 04/02 A3036 RMK A01 T00400020  RH  087%=      5-min Rain = 0
KCR2 100152Z 11005KT 04/02 A3036 RMK A01 T00400020  RH  087%=      5-min Rain = 0
KCR2 100153Z 11005KT 04/02 A3037 RMK A01 T00390020  RH  087%=      5-min Rain = 0
KCR2 100154Z 11005KT 04/02 A3037 RMK A01 T00390019  RH  087%=      5-min Rain = 0
KCR2 100155Z 11005KT 04/02 A3037 RMK A01 T00380019  RH  087%=      5-min Rain = 0
KCR2 100156Z 11004KT 04/02 A3037 RMK A01 T00380019  RH  087%=      5-min Rain = 0
KCR2 100157Z 12005KT 04/02 A3037 RMK A01 T00370019  RH  088%=      5-min Rain = 0
KCR2 100158Z 12005KT 04/02 A3037 RMK A01 T00380019  RH  088%=      5-min Rain = 0
KCR2 100159Z 12004KT 04/02 A3037 RMK A01 T00370019  RH  088%=      5-min Rain = 0
KCR2 100200Z 11004KT 04/02 A3037 RMK A01 T00370019  RH  088%=      5-min Rain = 0
KCR2 100201Z 11004KT 04/02 A3037 RMK A01 T00360019  RH  088%=      5-min Rain = 0
KCR2 100202Z 11004KT 04/02 A3037 RMK A01 T00360018  RH  088%=      5-min Rain = 0
KCR2 100203Z 11004KT 04/02 A3037 RMK A01 T00360019  RH  089%=      5-min Rain = 0
KCR2 100204Z 11004KT 04/02 A3037 RMK A01 T00350018  RH  089%=      5-min Rain = 0
KCR2 100205Z 11004KT 04/02 A3037 RMK A01 T00350018  RH  089%=      5-min Rain = 0
KCR2 100206Z 11004KT 03/02 A3038 RMK A01 T00340018  RH  089%=      5-min Rain = 0
KCR2 100207Z 11004KT 03/02 A3038 RMK A01 T00340018  RH  089%=      5-min Rain = 0
KCR2 100208Z 11004KT 03/02 A3038 RMK A01 T00340017  RH  089%=      5-min Rain = 0
KCR2 100209Z 11004KT 03/02 A3038 RMK A01 T00340017  RH  089%=      5-min Rain = 0
KCR2 100210Z 11004KT 03/02 A3038 RMK A01 T00340017  RH  089%=      5-min Rain = 0
KCR2 100211Z 11004KT 03/02 A3038 RMK A01 T00330017  RH  089%=      5-min Rain = 0
KCR2 100212Z 11004KT 03/02 A3038 RMK A01 T00330017  RH  089%=      5-min Rain = 0
KCR2 100213Z 12004KT 03/02 A3038 RMK A01 T00330017  RH  089%=      5-min Rain = 0
KCR2 100214Z 12003KT 03/02 A3038 RMK A01 T00330017  RH  089%=      5-min Rain = 0
KCR2 100215Z 12003KT 03/02 A3038 RMK A01 T00330017  RH  090%=      5-min Rain = 0
KCR2 100216Z 13003KT 03/02 A3038 RMK A01 T00320017  RH  090%=      5-min Rain = 0
KCR2 100217Z 13004KT 03/02 A3038 RMK A01 T00320017  RH  090%=      5-min Rain = 0
KCR2 100218Z 13004KT 03/02 A3038 RMK A01 T00320018  RH  090%=      5-min Rain = 0
KCR2 100219Z 13004KT 03/02 A3038 RMK A01 T00320018  RH  090%=      5-min Rain = 0
KCR2 100220Z 13003KT 03/02 A3038 RMK A01 T00330018  RH  090%=      5-min Rain = 0
KCR2 100221Z 13004KT 03/02 A3038 RMK A01 T00330018  RH  090%=      5-min Rain = 0
KCR2 100222Z 13004KT 03/02 A3038 RMK A01 T00340018  RH  090%=      5-min Rain = 0
KCR2 100223Z 13004KT 03/02 A3038 RMK A01 T00340018  RH  089%=      5-min Rain = 0
KCR2 100224Z 12004KT 03/02 A3038 RMK A01 T00340017  RH  089%=      5-min Rain = 0
KCR2 100225Z 12004KT 03/02 A3038 RMK A01 T00340017  RH  089%=      5-min Rain = 0
KCR2 100226Z 12003KT 03/02 A3038 RMK A01 T00330017  RH  089%=      5-min Rain = 0
KCR2 100227Z 12003KT 03/02 A3038 RMK A01 T00320016  RH  089%=      5-min Rain = 0
KCR2 100228Z 13004KT 03/02 A3038 RMK A01 T00310016  RH  090%=      5-min Rain = 0
KCR2 100229Z 13005KT 03/02 A3038 RMK A01 T00310017  RH  090%=      5-min Rain = 0
KCR2 100230Z 13005KT 03/02 A3038 RMK A01 T00320017  RH  090%=      5-min Rain = 0
KCR2 100231Z 13005KT 03/02 A3038 RMK A01 T00320017  RH  090%=      5-min Rain = 0
KCR2 100232Z 13005KT 03/02 A3038 RMK A01 T00320017  RH  089%=      5-min Rain = 0
KCR2 100233Z 12005KT 03/02 A3038 RMK A01 T00320016  RH  089%=      5-min Rain = 0
KCR2 100234Z 12005KT 03/02 A3038 RMK A01 T00320015  RH  089%=      5-min Rain = 0
KCR2 100235Z 13005KT 03/02 A3038 RMK A01 T00310015  RH  089%=      5-min Rain = 0
KCR2 100236Z 13005KT 03/02 A3038 RMK A01 T00310015  RH  089%=      5-min Rain = 0
KCR2 100237Z 13005KT 03/02 A3038 RMK A01 T00310015  RH  089%=      5-min Rain = 0
KCR2 100238Z 13006KT 03/02 A3038 RMK A01 T00310015  RH  089%=      5-min Rain = 0
KCR2 100239Z 13006KT 03/02 A3038 RMK A01 T00310015  RH  089%=      5-min Rain = 0
KCR2 100240Z 13005KT 03/02 A3038 RMK A01 T00320015  RH  089%=      5-min Rain = 0
KCR2 100241Z 13005KT 03/02 A3038 RMK A01 T00320015  RH  089%=      5-min Rain = 0
KCR2 100242Z 13005KT 03/02 A3038 RMK A01 T00320016  RH  089%=      5-min Rain = 0
KCR2 100243Z 13006KT 03/02 A3038 RMK A01 T00330016  RH  089%=      5-min Rain = 0
KCR2 100244Z 13005KT 03/02 A3038 RMK A01 T00330016  RH  089%=      5-min Rain = 0
KCR2 100245Z 13005KT 03/02 A3038 RMK A01 T00330016  RH  088%=      5-min Rain = 0
KCR2 100246Z 13005KT 03/02 A3038 RMK A01 T00330016  RH  088%=      5-min Rain = 0
KCR2 100247Z 13005KT 03/02 A3038 RMK A01 T00330015  RH  088%=      5-min Rain = 0
KCR2 100248Z 13005KT 03/02 A3038 RMK A01 T00330015  RH  088%=      5-min Rain = 0
KCR2 100249Z 13005KT 03/02 A3038 RMK A01 T00330016  RH  088%=      5-min Rain = 0
KCR2 100250Z 13005KT 03/02 A3038 RMK A01 T00330015  RH  088%=      5-min Rain = 0
KCR2 100251Z 13005KT 03/02 A3038 RMK A01 T00330015  RH  088%=      5-min Rain = 0
KCR2 100252Z 13005KT 03/02 A3038 RMK A01 T00330015  RH  088%=      5-min Rain = 0
KCR2 100253Z 13005KT 03/02 A3038 RMK A01 T00330015  RH  088%=      5-min Rain = 0
KCR2 100254Z 14006KT 03/02 A3038 RMK A01 T00330015  RH  088%=      5-min Rain = 0
KCR2 100255Z 13006KT 03/02 A3038 RMK A01 T00330015  RH  088%=      5-min Rain = 0
KCR2 100256Z 14006KT 03/02 A3039 RMK A01 T00340015  RH  088%=      5-min Rain = 0
KCR2 100257Z 14006KT 03/02 A3039 RMK A01 T00340015  RH  087%=      5-min Rain = 0
KCR2 100258Z 13006KT 03/02 A3039 RMK A01 T00340015  RH  087%=      5-min Rain = 0
KCR2 100259Z 13006KT 03/02 A3039 RMK A01 T00340015  RH  088%=      5-min Rain = 0
KCR2 100300Z 13006KT 03/02 A3039 RMK A01 T00340015  RH  088%=      5-min Rain = 0
KCR2 100301Z 13006KT 03/02 A3039 RMK A01 T00340015  RH  088%=      5-min Rain = 0
KCR2 100302Z 13006KT 03/02 A3039 RMK A01 T00340015  RH  088%=      5-min Rain = 0
KCR2 100303Z 12006KT 03/02 A3039 RMK A01 T00340015  RH  088%=      5-min Rain = 0
KCR2 100304Z 12006KT 03/02 A3039 RMK A01 T00340015  RH  087%=      5-min Rain = 0
KCR2 100305Z 12006KT 03/02 A3039 RMK A01 T00340015  RH  087%=      5-min Rain = 0
KCR2 100306Z 12006KT 03/01 A3039 RMK A01 T00330014  RH  087%=      5-min Rain = 0
KCR2 100307Z 12006KT 03/01 A3039 RMK A01 T00330014  RH  087%=      5-min Rain = 0
KCR2 100308Z 12006KT 03/01 A3039 RMK A01 T00320013  RH  087%=      5-min Rain = 0
KCR2 100309Z 12005KT 03/01 A3038 RMK A01 T00320013  RH  087%=      5-min Rain = 0
KCR2 100310Z 13005KT 03/01 A3038 RMK A01 T00310013  RH  088%=      5-min Rain = 0
KCR2 100311Z 13005KT 03/01 A3038 RMK A01 T00310013  RH  088%=      5-min Rain = 0
KCR2 100312Z 13005KT 03/01 A3038 RMK A01 T00310013  RH  088%=      5-min Rain = 0
KCR2 100313Z 13005KT 03/01 A3038 RMK A01 T00300012  RH  088%=      5-min Rain = 0
KCR2 100314Z 13005KT 03/01 A3038 RMK A01 T00300013  RH  088%=      5-min Rain = 0
KCR2 100315Z 13005KT 03/01 A3038 RMK A01 T00300013  RH  088%=      5-min Rain = 0
KCR2 100316Z 13005KT 03/01 A3038 RMK A01 T00290013  RH  089%=      5-min Rain = 0
KCR2 100317Z 12005KT 03/01 A3038 RMK A01 T00290012  RH  089%=      5-min Rain = 0
KCR2 100318Z 12005KT 03/01 A3038 RMK A01 T00290012  RH  089%=      5-min Rain = 0
KCR2 100319Z 12005KT 03/01 A3038 RMK A01 T00290012  RH  089%=      5-min Rain = 0
KCR2 100320Z 12005KT 03/01 A3038 RMK A01 T00280012  RH  089%=      5-min Rain = 0
KCR2 100321Z 12004KT 03/01 A3038 RMK A01 T00280012  RH  089%=      5-min Rain = 0
KCR2 100322Z 12004KT 03/01 A3038 RMK A01 T00270012  RH  090%=      5-min Rain = 0
KCR2 100323Z 11005KT 03/01 A3039 RMK A01 T00260012  RH  090%=      5-min Rain = 0
KCR2 100324Z 11004KT 03/01 A3039 RMK A01 T00260012  RH  090%=      5-min Rain = 0
KCR2 100325Z 11004KT 03/01 A3039 RMK A01 T00260012  RH  090%=      5-min Rain = 0
KCR2 100326Z 11004KT 03/01 A3039 RMK A01 T00260011  RH  090%=      5-min Rain = 0
KCR2 100327Z 10003KT 03/01 A3039 RMK A01 T00250010  RH  090%=      5-min Rain = 0
KCR2 100328Z 10004KT 02/01 A3039 RMK A01 T00240010  RH  090%=      5-min Rain = 0
KCR2 100329Z 11004KT 02/01 A3039 RMK A01 T00240010  RH  090%=      5-min Rain = 0
KCR2 100330Z 10004KT 03/01 A3039 RMK A01 T00250011  RH  091%=      5-min Rain = 0
KCR2 100331Z 09003KT 02/01 A3039 RMK A01 T00240010  RH  090%=      5-min Rain = 0
KCR2 100332Z 10004KT 02/01 A3039 RMK A01 T00240010  RH  091%=      5-min Rain = 0
KCR2 100333Z 10004KT 02/01 A3039 RMK A01 T00240011  RH  091%=      5-min Rain = 0
KCR2 100334Z 10004KT 02/01 A3039 RMK A01 T00240011  RH  091%=      5-min Rain = 0
KCR2 100335Z 09004KT 02/01 A3039 RMK A01 T00230010  RH  091%=      5-min Rain = 0
KCR2 100336Z 09004KT 02/01 A3039 RMK A01 T00220010  RH  091%=      5-min Rain = 0
KCR2 100337Z 09004KT 02/01 A3039 RMK A01 T00210009  RH  092%=      5-min Rain = 0
KCR2 100338Z 08004KT 02/01 A3039 RMK A01 T00210009  RH  092%=      5-min Rain = 0
KCR2 100339Z 08005KT 02/01 A3039 RMK A01 T00200009  RH  092%=      5-min Rain = 0
KCR2 100340Z 09004KT 02/01 A3039 RMK A01 T00200009  RH  093%=      5-min Rain = 0
KCR2 100341Z 08004KT 02/01 A3039 RMK A01 T00200010  RH  093%=      5-min Rain = 0
KCR2 100342Z 09004KT 02/01 A3039 RMK A01 T00200010  RH  093%=      5-min Rain = 0
KCR2 100343Z 09004KT 02/01 A3039 RMK A01 T00200010  RH  093%=      5-min Rain = 0
KCR2 100344Z 08004KT 02/01 A3039 RMK A01 T00210011  RH  093%=      5-min Rain = 0
KCR2 100345Z 08004KT 02/01 A3039 RMK A01 T00210011  RH  093%=      5-min Rain = 0
KCR2 100346Z 08004KT 02/01 A3039 RMK A01 T00210011  RH  093%=      5-min Rain = 0
KCR2 100347Z 09004KT 02/01 A3039 RMK A01 T00220011  RH  093%=      5-min Rain = 0
KCR2 100348Z 09004KT 02/01 A3039 RMK A01 T00210011  RH  093%=      5-min Rain = 0
KCR2 100349Z 08004KT 02/01 A3039 RMK A01 T00220012  RH  093%=      5-min Rain = 0
KCR2 100350Z 08004KT 02/01 A3039 RMK A01 T00220012  RH  093%=      5-min Rain = 0
KCR2 100351Z 08004KT 02/01 A304 RMK A01 T00220011  RH  093%=      5-min Rain = 0
KCR2 100352Z 08004KT 02/01 A304 RMK A01 T00220011  RH  093%=      5-min Rain = 0
KCR2 100353Z 08004KT 02/01 A304 RMK A01 T00220011  RH  093%=      5-min Rain = 0
KCR2 100354Z 09004KT 02/01 A304 RMK A01 T00210011  RH  093%=      5-min Rain = 0
KCR2 100355Z 09004KT 02/01 A304 RMK A01 T00210010  RH  093%=      5-min Rain = 0
KCR2 100356Z 09004KT 02/01 A304 RMK A01 T00210011  RH  093%=      5-min Rain = 0
KCR2 100357Z 09004KT 02/01 A304 RMK A01 T00210010  RH  093%=      5-min Rain = 0
KCR2 100358Z 09004KT 02/01 A304 RMK A01 T00200010  RH  093%=      5-min Rain = 0
KCR2 100359Z 09004KT 02/01 A304 RMK A01 T00200010  RH  093%=      5-min Rain = 0
KCR2 100400Z 09004KT 02/01 A304 RMK A01 T00200010  RH  093%=      5-min Rain = 0
KCR2 100401Z 09004KT 02/01 A304 RMK A01 T00200010  RH  093%=      5-min Rain = 0
KCR2 100402Z 09004KT 02/01 A304 RMK A01 T00190009  RH  093%=      5-min Rain = 0
KCR2 100403Z 08004KT 02/01 A304 RMK A01 T00190009  RH  093%=      5-min Rain = 0
KCR2 100404Z 08004KT 02/01 A304 RMK A01 T00190009  RH  093%=      5-min Rain = 0
KCR2 100405Z 08004KT 02/01 A304 RMK A01 T00190009  RH  093%=      5-min Rain = 0
KCR2 100406Z 07004KT 02/01 A304 RMK A01 T00190009  RH  093%=      5-min Rain = 0
KCR2 100407Z 07004KT 02/01 A304 RMK A01 T00180008  RH  093%=      5-min Rain = 0
KCR2 100408Z 07004KT 02/01 A304 RMK A01 T00180008  RH  093%=      5-min Rain = 0
KCR2 100409Z 07004KT 02/01 A304 RMK A01 T00180009  RH  093%=      5-min Rain = 0
KCR2 100410Z 07004KT 02/01 A304 RMK A01 T00180009  RH  093%=      5-min Rain = 0
KCR2 100411Z 07004KT 02/01 A304 RMK A01 T00180009  RH  094%=      5-min Rain = 0
KCR2 100412Z 07004KT 02/01 A304 RMK A01 T00180008  RH  093%=      5-min Rain = 0
KCR2 100413Z 07005KT 02/01 A304 RMK A01 T00180008  RH  093%=      5-min Rain = 0
KCR2 100414Z 07005KT 02/01 A304 RMK A01 T00180009  RH  094%=      5-min Rain = 0
KCR2 100415Z 07004KT 02/01 A304 RMK A01 T00180009  RH  094%=      5-min Rain = 0
KCR2 100416Z 07004KT 02/01 A304 RMK A01 T00180009  RH  094%=      5-min Rain = 0
KCR2 100417Z 08003KT 02/01 A304 RMK A01 T00190009  RH  093%=      5-min Rain = 0
KCR2 100418Z 07003KT 02/01 A304 RMK A01 T00180008  RH  093%=      5-min Rain = 0
KCR2 100419Z 08003KT 02/01 A304 RMK A01 T00180008  RH  093%=      5-min Rain = 0
KCR2 100420Z 07003KT 02/01 A304 RMK A01 T00170007  RH  093%=      5-min Rain = 0
KCR2 100421Z 07003KT 02/01 A304 RMK A01 T00170007  RH  093%=      5-min Rain = 0
KCR2 100422Z 07003KT 02/01 A304 RMK A01 T00170007  RH  093%=      5-min Rain = 0
KCR2 100423Z 07003KT 02/01 A304 RMK A01 T00160006  RH  093%=      5-min Rain = 0
KCR2 100424Z 07002KT 02/01 A304 RMK A01 T00160006  RH  093%=      5-min Rain = 0
KCR2 100425Z 08002KT 02/01 A304 RMK A01 T00150006  RH  093%=      5-min Rain = 0
KCR2 100426Z 08003KT 02/01 A304 RMK A01 T00150006  RH  094%=      5-min Rain = 0
KCR2 100427Z 09003KT 02/01 A304 RMK A01 T00150005  RH  094%=      5-min Rain = 0
KCR2 100428Z 09003KT 02/01 A304 RMK A01 T00150006  RH  094%=      5-min Rain = 0
KCR2 100429Z 09003KT 01/01 A304 RMK A01 T00140005  RH  094%=      5-min Rain = 0
KCR2 100430Z 08003KT 01/01 A304 RMK A01 T00140006  RH  094%=      5-min Rain = 0
KCR2 100431Z 07003KT 01/01 A304 RMK A01 T00140006  RH  094%=      5-min Rain = 0
KCR2 100432Z 07002KT 01/01 A304 RMK A01 T00140006  RH  094%=      5-min Rain = 0
KCR2 100433Z 07002KT 01/01 A304 RMK A01 T00130005  RH  094%=      5-min Rain = 0
KCR2 100434Z 07002KT 01/01 A304 RMK A01 T00130005  RH  094%=      5-min Rain = 0
KCR2 100435Z 08003KT 01/01 A304 RMK A01 T00130005  RH  095%=      5-min Rain = 0
KCR2 100436Z 08003KT 01/01 A304 RMK A01 T00130005  RH  095%=      5-min Rain = 0
KCR2 100437Z 08003KT 01/01 A304 RMK A01 T00130005  RH  095%=      5-min Rain = 0
KCR2 100438Z 08002KT 01/01 A304 RMK A01 T00130005  RH  095%=      5-min Rain = 0
KCR2 100439Z 07002KT 01/01 A304 RMK A01 T00120005  RH  095%=      5-min Rain = 0
KCR2 100440Z 08003KT 01/01 A304 RMK A01 T00120005  RH  095%=      5-min Rain = 0
KCR2 100441Z 08002KT 01/00 A304 RMK A01 T00120004  RH  095%=      5-min Rain = 0
KCR2 100442Z 08002KT 01/00 A304 RMK A01 T00110004  RH  095%=      5-min Rain = 0
KCR2 100443Z 08002KT 01/00 A304 RMK A01 T00110004  RH  095%=      5-min Rain = 0
KCR2 100444Z 08002KT 01/00 A304 RMK A01 T00110004  RH  095%=      5-min Rain = 0
KCR2 100445Z 09002KT 01/00 A304 RMK A01 T00110004  RH  095%=      5-min Rain = 0
KCR2 100446Z 09002KT 01/00 A304 RMK A01 T00110004  RH  095%=      5-min Rain = 0
KCR2 100447Z 09002KT 01/00 A304 RMK A01 T00110004  RH  095%=      5-min Rain = 0
KCR2 100448Z 09002KT 01/00 A304 RMK A01 T00110004  RH  095%=      5-min Rain = 0
KCR2 100449Z 09002KT 01/00 A304 RMK A01 T00110004  RH  095%=      5-min Rain = 0
KCR2 100450Z 09002KT 01/00 A304 RMK A01 T00110004  RH  095%=      5-min Rain = 0
KCR2 100451Z 09002KT 01/00 A304 RMK A01 T00110004  RH  095%=      5-min Rain = 0
KCR2 100452Z 09002KT 01/00 A304 RMK A01 T00110004  RH  095%=      5-min Rain = 0
KCR2 100453Z 09002KT 01/01 A304 RMK A01 T00110005  RH  095%=      5-min Rain = 0
KCR2 100454Z 10002KT 01/01 A3039 RMK A01 T00110005  RH  096%=      5-min Rain = 0
KCR2 100455Z 10002KT 01/01 A3039 RMK A01 T00110005  RH  096%=      5-min Rain = 0
KCR2 100456Z 10002KT 01/01 A3039 RMK A01 T00110005  RH  096%=      5-min Rain = 0
KCR2 100457Z 10002KT 01/01 A3039 RMK A01 T00120005  RH  096%=      5-min Rain = 0
KCR2 100458Z 10002KT 01/01 A3039 RMK A01 T00120006  RH  095%=      5-min Rain = 0
KCR2 100459Z 10002KT 01/01 A3039 RMK A01 T00120005  RH  095%=      5-min Rain = 0
KCR2 100500Z 11002KT 01/01 A3039 RMK A01 T00120005  RH  095%=      5-min Rain = 0
KCR2 100501Z 12002KT 01/01 A3039 RMK A01 T00120005  RH  095%=      5-min Rain = 0
KCR2 100502Z 12001KT 01/01 A3039 RMK A01 T00120005  RH  095%=      5-min Rain = 0
KCR2 100503Z 12001KT 01/01 A3039 RMK A01 T00120005  RH  095%=      5-min Rain = 0
KCR2 100504Z 12001KT 01/01 A3039 RMK A01 T00120005  RH  095%=      5-min Rain = 0
KCR2 100505Z 11002KT 01/01 A3039 RMK A01 T00120005  RH  095%=      5-min Rain = 0
KCR2 100506Z 10002KT 01/00 A3039 RMK A01 T00110004  RH  095%=      5-min Rain = 0
KCR2 100507Z 09002KT 01/00 A3039 RMK A01 T00110004  RH  095%=      5-min Rain = 0
KCR2 100508Z 08002KT 01/00 A3039 RMK A01 T00110004  RH  095%=      5-min Rain = 0
KCR2 100509Z 07002KT 01/00 A3039 RMK A01 T00110004  RH  095%=      5-min Rain = 0
KCR2 100510Z 08002KT 01/00 A3039 RMK A01 T00110004  RH  095%=      5-min Rain = 0
KCR2 100511Z 08002KT 01/00 A3039 RMK A01 T00110004  RH  095%=      5-min Rain = 0
KCR2 100512Z 08002KT 01/00 A3039 RMK A01 T00100003  RH  095%=      5-min Rain = 0
KCR2 100513Z 07002KT 01/00 A3039 RMK A01 T00100003  RH  095%=      5-min Rain = 0
KCR2 100514Z 06003KT 01/00 A3039 RMK A01 T00100002  RH  095%=      5-min Rain = 0
KCR2 100515Z 06003KT 01/00 A3039 RMK A01 T00090001  RH  095%=      5-min Rain = 0
KCR2 100516Z 06003KT 01/00 A304 RMK A01 T00090001  RH  095%=      5-min Rain = 0
KCR2 100517Z 06003KT 01/00 A304 RMK A01 T00080001  RH  095%=      5-min Rain = 0
KCR2 100518Z 06003KT 01/00 A304 RMK A01 T00080001  RH  095%=      5-min Rain = 0
KCR2 100519Z 06003KT 01/00 A304 RMK A01 T00080001  RH  095%=      5-min Rain = 0
KCR2 100520Z 07003KT 01/00 A304 RMK A01 T00080001  RH  095%=      5-min Rain = 0
KCR2 100521Z 07003KT 01/00 A304 RMK A01 T00080000  RH  095%=      5-min Rain = 0
KCR2 100522Z 07002KT 01/00 A304 RMK A01 T00070000  RH  095%=      5-min Rain = 0
KCR2 100523Z 09002KT 01/00 A304 RMK A01 T00080001  RH  095%=      5-min Rain = 0
KCR2 100524Z 09002KT 01/00 A304 RMK A01 T00080001  RH  095%=      5-min Rain = 0
KCR2 100525Z 09002KT 01/00 A304 RMK A01 T00070001  RH  095%=      5-min Rain = 0
KCR2 100526Z 09002KT 01/00 A304 RMK A01 T00070000  RH  095%=      5-min Rain = 0
KCR2 100527Z 09001KT 01/00 A304 RMK A01 T00070001  RH  095%=      5-min Rain = 0
KCR2 100528Z 09001KT 01/00 A304 RMK A01 T00070001  RH  096%=      5-min Rain = 0
KCR2 100529Z 08001KT 01/00 A304 RMK A01 T00070001  RH  096%=      5-min Rain = 0
KCR2 100530Z 06002KT 01/00 A304 RMK A01 T00070001  RH  095%=      5-min Rain = 0
KCR2 100531Z 05002KT 01/00 A304 RMK A01 T00070001  RH  095%=      5-min Rain = 0
KCR2 100532Z 04002KT 01/00 A304 RMK A01 T000600-0  RH  095%=      5-min Rain = 0
KCR2 100533Z 04002KT 01/00 A304 RMK A01 T000600-0  RH  095%=      5-min Rain = 0
KCR2 100534Z 04003KT 01/M00 A304 RMK A01 T00051001  RH  095%=      5-min Rain = 0
KCR2 100535Z 04003KT 01/M00 A304 RMK A01 T00051001  RH  095%=      5-min Rain = 0
KCR2 100536Z 04004KT 01/M00 A304 RMK A01 T00051001  RH  096%=      5-min Rain = 0
KCR2 100537Z 04005KT 01/M00 A304 RMK A01 T00051001  RH  096%=      5-min Rain = 0
KCR2 100538Z 04005KT 00/M00 A304 RMK A01 T00041003  RH  095%=      5-min Rain = 0
KCR2 100539Z 04004KT 00/M00 A304 RMK A01 T00041003  RH  095%=      5-min Rain = 0
KCR2 100540Z 04004KT 00/M00 A304 RMK A01 T00031003  RH  096%=      5-min Rain = 0
KCR2 100541Z 04003KT 00/M00 A304 RMK A01 T00041002  RH  096%=      5-min Rain = 0
KCR2 100542Z 04002KT 00/M00 A304 RMK A01 T00031003  RH  096%=      5-min Rain = 0
KCR2 100543Z 04002KT 00/M00 A304 RMK A01 T00031003  RH  096%=      5-min Rain = 0
KCR2 100544Z 04002KT 00/M00 A304 RMK A01 T00031002  RH  096%=      5-min Rain = 0
KCR2 100545Z 04002KT 00/M00 A304 RMK A01 T00031002  RH  096%=      5-min Rain = 0
KCR2 100546Z 04002KT 00/M00 A304 RMK A01 T00031003  RH  096%=      5-min Rain = 0
KCR2 100547Z 04003KT 00/M00 A304 RMK A01 T00031002  RH  096%=      5-min Rain = 0
KCR2 100548Z 04003KT 00/M00 A3041 RMK A01 T00031002  RH  096%=      5-min Rain = 0
KCR2 100549Z 04002KT 00/M00 A3041 RMK A01 T00031002  RH  096%=      5-min Rain = 0
KCR2 100550Z 03003KT 00/M00 A3041 RMK A01 T00041002  RH  096%=      5-min Rain = 0
KCR2 100551Z 04003KT 00/M00 A3041 RMK A01 T00041001  RH  096%=      5-min Rain = 0
KCR2 100552Z 04003KT 00/M00 A3041 RMK A01 T00041001  RH  096%=      5-min Rain = 0
KCR2 100553Z 04004KT 00/M00 A3041 RMK A01 T00041001  RH  096%=      5-min Rain = 0
KCR2 100554Z 04004KT 01/00 A3041 RMK A01 T000500-0  RH  097%=      5-min Rain = 0
KCR2 100555Z 04004KT 01/00 A3041 RMK A01 T000500-0  RH  097%=      5-min Rain = 0
KCR2 100556Z 04005KT 01/00 A3041 RMK A01 T00050000  RH  097%=      5-min Rain = 0
KCR2 100557Z 04005KT 01/00 A3041 RMK A01 T00050000  RH  097%=      5-min Rain = 0
KCR2 100558Z 04005KT 01/M00 A3041 RMK A01 T00051001  RH  096%=      5-min Rain = 0
KCR2 100559Z 04005KT 00/M00 A3041 RMK A01 T00031002  RH  096%=      5-min Rain = 0

Page generated in 0.14 seconds.